LiveATC.Net - Listen to live air traffic control over the Internet!

Find LiveATC Audio Streams


Airport/ARTCC Code

Frequency Search
(e.g., 124.400, 128.75)
Site-wide search
 


Browse LiveATC Feeds
LiveATC Coverage Map
Top 50 LiveATC Feeds
Bad Weather Areas

LiveATC FAQ
Offer a LiveATC Feed
Contact LiveATC.net
Press Inquiries

LiveATC on iPhone
LiveATC on Android

Windows Phone
Windows 8/10

LiveATC Mobile
(Mobile browser)

ATC Audio Archives
Interesting Recordings

LiveATC Forums

Home Page
About LiveATC.net
Make a Donation
Terms of Use
Privacy Policy

Canadian Air Freqs

AIRMETs/SIGMETs

FAA Airport Status
Nat'l Airspace Status
Arrival Demand Charts


Server Software By:
Icecast.org
Liquidsoap

Select an area of interest:
U.S. Feeds: Class B Airports | Class C Airports | Class D/Other Airports | ARTCC (Centers)
International Feeds: Canada | Europe | Oceania | Asia | South America | North/Central America | Africa
Misc Feeds: HF Feeds
Search by ICAO/IATA airport code:   (e.g., kbos, kjfk, lax, eham, etc.)


Currently Available Live Feeds: 2236
Status Updated: Sun Jun 24 2018 14:55:01 UTC


NOTICE

Unauthorized use prohibited. See LiveATC.net Terms of Service

Europe Airport Feeds

 

EFKK Tower (Archives)
Kronoby, Finland

Feed Status: UP

Click on your favorite media player to listen:
Listen with WinAmp to EFKK Tower  Listen with iTunes to EFKK Tower  Click here to listen if using Real Player  Click here to listen if using Windows Media Player

Or simply listen in your browser:

Listen right in your browser(in browser, requires Flash)

EFKK 241420Z AUTO 32005KT 240V050 CAVOK 17/06 Q1013

EFKK Flight Activity (Flightaware)

Listeners: 1 out of 355 total

Kronoby Tower: 120.100

EFKU Tower/Approach
Siilinjarvi, Finland

Feed Status: DOWN
Offline since: 2018-06-18 11:11:01 UTC
EFKU 241420Z AUTO 01008KT 9999 SCT048 17/07 Q1012

Kuopio Approach: 130.600
Kuopio Tower: 120.150

Dutch Mil Radar (Archives)
Amsterdam, Netherlands

Feed Status: UP

Click on your favorite media player to listen:
Listen with WinAmp to Dutch Mil Radar  Listen with iTunes to Dutch Mil Radar  Click here to listen if using Real Player  Click here to listen if using Windows Media Player

Or simply listen in your browser:

Listen right in your browser(in browser, requires Flash)

EHLE Flight Activity (Flightaware)

Listeners: 0 out of 355 total

Dutch Mil Flight Info: 264.325
Dutch Mil Radar: 128.550
Dutch Mil Radar: 132.350

EHAA Radar ARTIP (Archives)
Amsterdam, Netherlands

Feed Status: UP

Click on your favorite media player to listen:
Listen with WinAmp to EHAA Radar ARTIP  Listen with iTunes to EHAA Radar ARTIP  Click here to listen if using Real Player  Click here to listen if using Windows Media Player

Or simply listen in your browser:

Listen right in your browser(in browser, requires Flash)

EHAM 241425Z 32014KT 300V360 9999 FEW022 BKN027 17/10 Q1024 NOSIG

EHAM Flight Activity (Flightaware)

Listeners: 0 out of 355 total

EHAA Radar Sector 1 ARTIP: 120.550

EHAA Radar East Inbound
Amsterdam, Netherlands

Feed Status: DOWN
Offline since: 2018-06-15 06:17:01 UTC
EHAM 241425Z 32014KT 300V360 9999 FEW022 BKN027 17/10 Q1024 NOSIG

EHAA Radar Sector 2 East Inbound: 128.575

EHAA Radar East Outbound (Archives)
Amsterdam, Netherlands

Feed Status: UP

Click on your favorite media player to listen:
Listen with WinAmp to EHAA Radar East Outbound  Listen with iTunes to EHAA Radar East Outbound  Click here to listen if using Real Player  Click here to listen if using Windows Media Player

Or simply listen in your browser:

Listen right in your browser(in browser, requires Flash)

EHAM 241425Z 32014KT 300V360 9999 FEW022 BKN027 17/10 Q1024 NOSIG

EHAM Flight Activity (Flightaware)

Listeners: 0 out of 355 total

EHAA Radar Sector 2 East Outbound: 124.875

EHAA Radar North
Amsterdam, Netherlands

Feed Status: DOWN
Offline since: 2018-06-15 06:17:01 UTC
EHAM 241425Z 32014KT 300V360 9999 FEW022 BKN027 17/10 Q1024 NOSIG

EHAA Radar Sector 1 North: 134.375

EHAA Radar Northwest (Archives)
Amsterdam, Netherlands

Feed Status: UP

Click on your favorite media player to listen:
Listen with WinAmp to EHAA Radar Northwest  Listen with iTunes to EHAA Radar Northwest  Click here to listen if using Real Player  Click here to listen if using Windows Media Player

Or simply listen in your browser:

Listen right in your browser(in browser, requires Flash)

EHAM 241425Z 32014KT 300V360 9999 FEW022 BKN027 17/10 Q1024 NOSIG

EHAM Flight Activity (Flightaware)

Listeners: 0 out of 355 total

EHAA Radar Sector 5 Northwest: 123.7000

EHAA Radar RIVER
Amsterdam, Netherlands

Feed Status: DOWN
Offline since: 2018-06-15 06:17:01 UTC
EHAM 241425Z 32014KT 300V360 9999 FEW022 BKN027 17/10 Q1024 NOSIG

EHAA Radar Sector 3 RIVER: 130.950

EHAA Radar South (Archives)
Amsterdam, Netherlands

Feed Status: UP

Click on your favorite media player to listen:
Listen with WinAmp to EHAA Radar South  Listen with iTunes to EHAA Radar South  Click here to listen if using Real Player  Click here to listen if using Windows Media Player

Or simply listen in your browser:

Listen right in your browser(in browser, requires Flash)

EHAM 241425Z 32014KT 300V360 9999 FEW022 BKN027 17/10 Q1024 NOSIG

EHAM Flight Activity (Flightaware)

Listeners: 0 out of 355 total

EHAA Radar Sector 3 South: 123.850

EHAA Radar South (Backup)
Amsterdam, Netherlands

Feed Status: DOWN
Offline since: 2018-02-11 02:19:01 UTC
EHAM 241425Z 32014KT 300V360 9999 FEW022 BKN027 17/10 Q1024 NOSIG

EHAA Radar Sector 3 South Backup : 127.775

EHAA Radar Southwest (Archives)
Amsterdam, Netherlands

Feed Status: UP

Click on your favorite media player to listen:
Listen with WinAmp to EHAA Radar Southwest  Listen with iTunes to EHAA Radar Southwest  Click here to listen if using Real Player  Click here to listen if using Windows Media Player

Or simply listen in your browser:

Listen right in your browser(in browser, requires Flash)

EHAM 241425Z 32014KT 300V360 9999 FEW022 BKN027 17/10 Q1024 NOSIG

EHAM Flight Activity (Flightaware)

Listeners: 0 out of 355 total

EHAA Radar Sector 4 Southwest: 125.750

EHAA Radar SUGOL (Archives)
Amsterdam, Netherlands

Feed Status: UP

Click on your favorite media player to listen:
Listen with WinAmp to EHAA Radar SUGOL  Listen with iTunes to EHAA Radar SUGOL  Click here to listen if using Real Player  Click here to listen if using Windows Media Player

Or simply listen in your browser:

Listen right in your browser(in browser, requires Flash)

EHAM 241425Z 32014KT 300V360 9999 FEW022 BKN027 17/10 Q1024 NOSIG

EHAM Flight Activity (Flightaware)

Listeners: 0 out of 355 total

EHAA Radar Sector 5 SUGOL: 118.800

EHAM Airside Ops Mgr (AOM)
Amsterdam, Netherlands

Feed Status: DOWN
Offline since: 2018-06-15 06:17:01 UTC
EHAM 241425Z 32014KT 300V360 9999 FEW022 BKN027 17/10 Q1024 NOSIG

Schiphol Airside Operations Manager: 130.475

EHAM App/Dep Backup
Amsterdam, Netherlands

Feed Status: DOWN
Offline since: 2018-02-24 13:30:03 UTC
EHAM 241425Z 32014KT 300V360 9999 FEW022 BKN027 17/10 Q1024 NOSIG

Schiphol App/Dep Backup: 118.075

EHAM App/Dep TMA East (Archives)
Amsterdam, Netherlands

Feed Status: UP

Click on your favorite media player to listen:
Listen with WinAmp to EHAM App/Dep TMA East  Listen with iTunes to EHAM App/Dep TMA East  Click here to listen if using Real Player  Click here to listen if using Windows Media Player

Or simply listen in your browser:

Listen right in your browser(in browser, requires Flash)

EHAM 241425Z 32014KT 300V360 9999 FEW022 BKN027 17/10 Q1024 NOSIG

EHAM Flight Activity (Flightaware)

Listeners: 0 out of 355 total

Amsterdam Approach/Departure TMA East: 119.055

EHAM App/Dep TMA West (Archives)
Amsterdam, Netherlands

Feed Status: UP

Click on your favorite media player to listen:
Listen with WinAmp to EHAM App/Dep TMA West  Listen with iTunes to EHAM App/Dep TMA West  Click here to listen if using Real Player  Click here to listen if using Windows Media Player

Or simply listen in your browser:

Listen right in your browser(in browser, requires Flash)

EHAM 241425Z 32014KT 300V360 9999 FEW022 BKN027 17/10 Q1024 NOSIG

EHAM Flight Activity (Flightaware)

Listeners: 2 out of 355 total

Amsterdam Approach/Departure TMA West: 121.200

EHAM Apron (North) (Archives)
Amsterdam, Netherlands

Feed Status: UP

Click on your favorite media player to listen:
Listen with WinAmp to EHAM Apron (North)  Listen with iTunes to EHAM Apron (North)  Click here to listen if using Real Player  Click here to listen if using Windows Media Player

Or simply listen in your browser:

Listen right in your browser(in browser, requires Flash)

EHAM 241425Z 32014KT 300V360 9999 FEW022 BKN027 17/10 Q1024 NOSIG

EHAM Flight Activity (Flightaware)

Listeners: 0 out of 355 total

Schiphol Apron (North): 121.880

EHAM Apron (South) (Archives)
Amsterdam, Netherlands

Feed Status: UP

Click on your favorite media player to listen:
Listen with WinAmp to EHAM Apron (South)  Listen with iTunes to EHAM Apron (South)  Click here to listen if using Real Player  Click here to listen if using Windows Media Player

Or simply listen in your browser:

Listen right in your browser(in browser, requires Flash)

EHAM 241425Z 32014KT 300V360 9999 FEW022 BKN027 17/10 Q1024 NOSIG

EHAM Flight Activity (Flightaware)

Listeners: 0 out of 355 total

Schiphol Apron (South): 121.780

EHAM Arrival (Primary) (Archives)
Amsterdam, Netherlands

Feed Status: UP

Click on your favorite media player to listen:
Listen with WinAmp to EHAM Arrival (Primary)  Listen with iTunes to EHAM Arrival (Primary)  Click here to listen if using Real Player  Click here to listen if using Windows Media Player

Or simply listen in your browser:

Listen right in your browser(in browser, requires Flash)

EHAM 241425Z 32014KT 300V360 9999 FEW022 BKN027 17/10 Q1024 NOSIG

EHAM Flight Activity (Flightaware)

Listeners: 0 out of 355 total

Amsterdam Arrival : 118.400

EHAM Arrival (Secondary)
Amsterdam, Netherlands

Feed Status: DOWN
Offline since: 2018-02-11 02:19:01 UTC
EHAM 241425Z 32014KT 300V360 9999 FEW022 BKN027 17/10 Q1024 NOSIG

Amsterdam Arrival (Secondary): 131.150

EHAM Arrival (Secondary/Backup)
Amsterdam, Netherlands

Feed Status: DOWN
Offline since: 2018-02-11 02:02:02 UTC
EHAM 241425Z 32014KT 300V360 9999 FEW022 BKN027 17/10 Q1024 NOSIG

Amsterdam Arrival (Secondary Backup): 131.275

EHAM Arrival Backup/Discrete
Amsterdam, Netherlands

Feed Status: DOWN
Offline since: 2018-03-02 13:13:02 UTC
EHAM 241425Z 32014KT 300V360 9999 FEW022 BKN027 17/10 Q1024 NOSIG

Schiphol Arrival Backup: 126.675

EHAM Clearance Delivery (Archives)
Amsterdam, Netherlands

Feed Status: UP

Click on your favorite media player to listen:
Listen with WinAmp to EHAM Clearance Delivery  Listen with iTunes to EHAM Clearance Delivery  Click here to listen if using Real Player  Click here to listen if using Windows Media Player

Or simply listen in your browser:

Listen right in your browser(in browser, requires Flash)

EHAM 241425Z 32014KT 300V360 9999 FEW022 BKN027 17/10 Q1024 NOSIG

EHAM Flight Activity (Flightaware)

Listeners: 0 out of 355 total

Schiphol Clearance Delivery: 121.980

EHAM Company Channels
Amsterdam, Netherlands

Feed Status: DOWN
Offline since: 2017-11-20 09:23:02 UTC
EHAM 241425Z 32014KT 300V360 9999 FEW022 BKN027 17/10 Q1024 NOSIG

Aviapartner Amsterdam: 131.575
Aviapartner cargo operations (v/h Aeroground): 131.850
British airways engineering: 131.550
EL-AL operations/groundcrew: 131.500
Japan Airlines, Politie Luchtvaart Dienst Operations: 131.600
Jet Netherlands Schiphol-Oost: 131.565
KLC Operations (F100) (E190): 131.450
KLC Operations (F70): 131.975
KLM Dispatch/Flow control (slotcoordinatie): 131.435
KLM Jet Center: 121.925
KLM Maintenance: 131.940
KLM Operations (flightwatch): 131.650
KLM Team Leiders Operatie B/C/D (EUR): 131.425
KLM Team Leiders Operatie E/F/G (ICA): 131.415
LVNL Testvluchten: 122.750
MartinAir Maintenance Ops: 131.475
Martinair Operations: 131.925
Menzies operations: 131.800
Nayak aircraft maintenance: 131.750
Swissport Cargo: 131.665
Telnet avionics operations: 131.735
Transavia operations/maintenance: 131.900
TUI Arke Fly operations: 131.685

EHAM Ground (Backup)
Amsterdam, Netherlands

Feed Status: DOWN
Offline since: 2018-03-02 13:14:02 UTC
EHAM 241425Z 32014KT 300V360 9999 FEW022 BKN027 17/10 Q1024 NOSIG

Schiphol Ground (Backup): 122.425

EHAM Ground (North) (Archives)
Amsterdam, Netherlands

Feed Status: UP

Click on your favorite media player to listen:
Listen with WinAmp to EHAM Ground (North)  Listen with iTunes to EHAM Ground (North)  Click here to listen if using Real Player  Click here to listen if using Windows Media Player

Or simply listen in your browser:

Listen right in your browser(in browser, requires Flash)

EHAM 241425Z 32014KT 300V360 9999 FEW022 BKN027 17/10 Q1024 NOSIG

EHAM Flight Activity (Flightaware)

Listeners: 0 out of 355 total

Schiphol Ground (North): 121.805

EHAM Ground (South) (Archives)
Amsterdam, Netherlands

Feed Status: UP

Click on your favorite media player to listen:
Listen with WinAmp to EHAM Ground (South)  Listen with iTunes to EHAM Ground (South)  Click here to listen if using Real Player  Click here to listen if using Windows Media Player

Or simply listen in your browser:

Listen right in your browser(in browser, requires Flash)

EHAM 241425Z 32014KT 300V360 9999 FEW022 BKN027 17/10 Q1024 NOSIG

EHAM Flight Activity (Flightaware)

Listeners: 0 out of 355 total

Schiphol Ground (South): 121.705

EHAM Ground (West) (Archives)
Amsterdam, Netherlands

Feed Status: UP

Click on your favorite media player to listen:
Listen with WinAmp to EHAM Ground (West)  Listen with iTunes to EHAM Ground (West)  Click here to listen if using Real Player  Click here to listen if using Windows Media Player

Or simply listen in your browser:

Listen right in your browser(in browser, requires Flash)

EHAM 241425Z 32014KT 300V360 9999 FEW022 BKN027 17/10 Q1024 NOSIG

EHAM Flight Activity (Flightaware)

Listeners: 0 out of 355 total

Schiphol Ground (West): 121.560

EHAM Info North Sea (North) (Archives)
Amsterdam, Netherlands

Feed Status: UP

Click on your favorite media player to listen:
Listen with WinAmp to EHAM Info North Sea (North)  Listen with iTunes to EHAM Info North Sea (North)  Click here to listen if using Real Player  Click here to listen if using Windows Media Player

Or simply listen in your browser:

Listen right in your browser(in browser, requires Flash)

EHAM 241425Z 32014KT 300V360 9999 FEW022 BKN027 17/10 Q1024 NOSIG

EHAM Flight Activity (Flightaware)

Listeners: 0 out of 355 total

Amsterdam Info North Sea (North): 119.175

EHAM Info North Sea (Over Land)
Amsterdam, Netherlands

Feed Status: DOWN
Offline since: 2018-03-02 13:13:02 UTC
EHAM 241425Z 32014KT 300V360 9999 FEW022 BKN027 17/10 Q1024 NOSIG

Amsterdam Info North Sea (Over Land): 124.300

EHAM Info North Sea (South)
Amsterdam, Netherlands

Feed Status: DOWN
Offline since: 2018-06-15 06:17:01 UTC
EHAM 241425Z 32014KT 300V360 9999 FEW022 BKN027 17/10 Q1024 NOSIG

Amsterdam Info North Sea (South): 136.650

EHAM Ops (Archives)
Amsterdam, Netherlands

Feed Status: UP

Click on your favorite media player to listen:
Listen with WinAmp to EHAM Ops  Listen with iTunes to EHAM Ops  Click here to listen if using Real Player  Click here to listen if using Windows Media Player

Or simply listen in your browser:

Listen right in your browser(in browser, requires Flash)

EHAM 241425Z 32014KT 300V360 9999 FEW022 BKN027 17/10 Q1024 NOSIG

EHAM Flight Activity (Flightaware)

Listeners: 0 out of 355 total

Schiphol Ops 1: 465.770
Schiphol Ops 2: 466.470
Schiphol Runway Ops: 447.175

EHAM Schiphol Outbound Planner
Amsterdam, Netherlands

Feed Status: DOWN
Offline since: 2018-03-02 13:14:02 UTC
EHAM 241425Z 32014KT 300V360 9999 FEW022 BKN027 17/10 Q1024 NOSIG

Schiphol Outbound Planner: 121.655

EHAM Tow Traffic
Amsterdam, Netherlands

Feed Status: DOWN
Offline since: 2018-03-02 13:18:02 UTC
EHAM 241425Z 32014KT 300V360 9999 FEW022 BKN027 17/10 Q1024 NOSIG

Schiphol Tow Traffic: 134.875

EHAM Tower (06/24) (Archives)
Amsterdam, Netherlands

Feed Status: UP

Click on your favorite media player to listen:
Listen with WinAmp to EHAM Tower (06/24)  Listen with iTunes to EHAM Tower (06/24)  Click here to listen if using Real Player  Click here to listen if using Windows Media Player

Or simply listen in your browser:

Listen right in your browser(in browser, requires Flash)

EHAM 241425Z 32014KT 300V360 9999 FEW022 BKN027 17/10 Q1024 NOSIG

EHAM Flight Activity (Flightaware)

Listeners: 0 out of 355 total

Schiphol Tower Main 06/24: 118.950

EHAM Tower (18C/36C-27/09) (Archives)
Amsterdam, Netherlands

Feed Status: UP

Click on your favorite media player to listen:
Listen with WinAmp to EHAM Tower (18C/36C-27/09)  Listen with iTunes to EHAM Tower (18C/36C-27/09)  Click here to listen if using Real Player  Click here to listen if using Windows Media Player

Or simply listen in your browser:

Listen right in your browser(in browser, requires Flash)

EHAM 241425Z 32014KT 300V360 9999 FEW022 BKN027 17/10 Q1024 NOSIG

EHAM Flight Activity (Flightaware)

Listeners: 0 out of 355 total

Schiphol Tower Main 18C/36C - 27/09: 118.100

EHAM Tower (18L/36R-22/04) (Archives)
Amsterdam, Netherlands

Feed Status: UP

Click on your favorite media player to listen:
Listen with WinAmp to EHAM Tower (18L/36R-22/04)  Listen with iTunes to EHAM Tower (18L/36R-22/04)  Click here to listen if using Real Player  Click here to listen if using Windows Media Player

Or simply listen in your browser:

Listen right in your browser(in browser, requires Flash)

EHAM 241425Z 32014KT 300V360 9999 FEW022 BKN027 17/10 Q1024 NOSIG

EHAM Flight Activity (Flightaware)

Listeners: 0 out of 355 total

Schiphol Tower Main 18L/36R - 22/04: 119.225

EHAM Tower Backup (Archives)
Amsterdam, Netherlands

Feed Status: UP

Click on your favorite media player to listen:
Listen with WinAmp to EHAM Tower Backup  Listen with iTunes to EHAM Tower Backup  Click here to listen if using Real Player  Click here to listen if using Windows Media Player

Or simply listen in your browser:

Listen right in your browser(in browser, requires Flash)

EHAM 241425Z 32014KT 300V360 9999 FEW022 BKN027 17/10 Q1024 NOSIG

EHAM Flight Activity (Flightaware)

Listeners: 0 out of 355 total

Schiphol Tower Backup: 119.905

EHAM Tower West (18R/36L) (Archives)
Amsterdam, Netherlands

Feed Status: UP

Click on your favorite media player to listen:
Listen with WinAmp to EHAM Tower West (18R/36L)  Listen with iTunes to EHAM Tower West (18R/36L)  Click here to listen if using Real Player  Click here to listen if using Windows Media Player

Or simply listen in your browser:

Listen right in your browser(in browser, requires Flash)

EHAM 241425Z 32014KT 300V360 9999 FEW022 BKN027 17/10 Q1024 NOSIG

EHAM Flight Activity (Flightaware)

Listeners: 0 out of 355 total

Schiphol Tower West 18R/36L: 118.280

EHBK Gnd/Twr/App (Archives)
Beek, Netherlands

Feed Status: UP

Click on your favorite media player to listen:
Listen with WinAmp to EHBK Gnd/Twr/App  Listen with iTunes to EHBK Gnd/Twr/App  Click here to listen if using Real Player  Click here to listen if using Windows Media Player

Or simply listen in your browser:

Listen right in your browser(in browser, requires Flash)

EHBK 241425Z AUTO 35007KT 290V060 9999 OVC045 19/08 Q1023 NOSIG

EHBK Flight Activity (Flightaware)

Listeners: 1 out of 355 total

Beek Approach: 120.200
Beek Approach: 123.975
Beek Ground: 121.825
Beek Tower: 119.475
Beek Tower: 119.700

MUAC/Eurocontrol Delta High (Archives)
Beek, Netherlands

Feed Status: UP

Click on your favorite media player to listen:
Listen with WinAmp to MUAC/Eurocontrol Delta High  Listen with iTunes to MUAC/Eurocontrol Delta High  Click here to listen if using Real Player  Click here to listen if using Windows Media Player

Or simply listen in your browser:

Listen right in your browser(in browser, requires Flash)

EHBK 241425Z AUTO 35007KT 290V060 9999 OVC045 19/08 Q1023 NOSIG

EHBK Flight Activity (Flightaware)

Listeners: 0 out of 355 total

MUAC Delta High Sector: 132.085

MUAC/Eurocontrol Koksy (Archives)
Beek, Netherlands

Feed Status: UP

Click on your favorite media player to listen:
Listen with WinAmp to MUAC/Eurocontrol Koksy  Listen with iTunes to MUAC/Eurocontrol Koksy  Click here to listen if using Real Player  Click here to listen if using Windows Media Player

Or simply listen in your browser:

Listen right in your browser(in browser, requires Flash)

EHBK 241425Z AUTO 35007KT 290V060 9999 OVC045 19/08 Q1023 NOSIG

EHBK Flight Activity (Flightaware)

Listeners: 0 out of 355 total

MUAC Koksy Sector: 132.205

MUAC/Eurocontrol Koksy High (Archives)
Beek, Netherlands

Feed Status: UP

Click on your favorite media player to listen:
Listen with WinAmp to MUAC/Eurocontrol Koksy High  Listen with iTunes to MUAC/Eurocontrol Koksy High  Click here to listen if using Real Player  Click here to listen if using Windows Media Player

Or simply listen in your browser:

Listen right in your browser(in browser, requires Flash)

EHBK 241425Z AUTO 35007KT 290V060 9999 OVC045 19/08 Q1023 NOSIG

EHBK Flight Activity (Flightaware)

Listeners: 0 out of 355 total

MUAC Koksy High Sector: 132.755

MUAC/Eurocontrol Lux High (Archives)
Beek, Netherlands

Feed Status: UP

Click on your favorite media player to listen:
Listen with WinAmp to MUAC/Eurocontrol Lux High  Listen with iTunes to MUAC/Eurocontrol Lux High  Click here to listen if using Real Player  Click here to listen if using Windows Media Player

Or simply listen in your browser:

Listen right in your browser(in browser, requires Flash)

EHBK 241425Z AUTO 35007KT 290V060 9999 OVC045 19/08 Q1023 NOSIG

EHBK Flight Activity (Flightaware)

Listeners: 0 out of 355 total

MUAC Lux High Sector: 132.315

MUAC/Eurocontrol Lux Low (Archives)
Beek, Netherlands

Feed Status: UP

Click on your favorite media player to listen:
Listen with WinAmp to MUAC/Eurocontrol Lux Low  Listen with iTunes to MUAC/Eurocontrol Lux Low  Click here to listen if using Real Player  Click here to listen if using Windows Media Player

Or simply listen in your browser:

Listen right in your browser(in browser, requires Flash)

EHBK 241425Z AUTO 35007KT 290V060 9999 OVC045 19/08 Q1023 NOSIG

EHBK Flight Activity (Flightaware)

Listeners: 0 out of 355 total

MUAC Lux Low Sector: 133.355

MUAC/Eurocontrol Olno Low (Archives)
Beek, Netherlands

Feed Status: UP

Click on your favorite media player to listen:
Listen with WinAmp to MUAC/Eurocontrol Olno Low  Listen with iTunes to MUAC/Eurocontrol Olno Low  Click here to listen if using Real Player  Click here to listen if using Windows Media Player

Or simply listen in your browser:

Listen right in your browser(in browser, requires Flash)

EHBK 241425Z AUTO 35007KT 290V060 9999 OVC045 19/08 Q1023 NOSIG

EHBK Flight Activity (Flightaware)

Listeners: 0 out of 355 total

MUAC Olno Low Sector: 132.855

MUAC/Eurocontrol Ruhr (Archives)
Beek, Netherlands

Feed Status: UP

Click on your favorite media player to listen:
Listen with WinAmp to MUAC/Eurocontrol Ruhr  Listen with iTunes to MUAC/Eurocontrol Ruhr  Click here to listen if using Real Player  Click here to listen if using Windows Media Player

Or simply listen in your browser:

Listen right in your browser(in browser, requires Flash)

EHBK 241425Z AUTO 35007KT 290V060 9999 OVC045 19/08 Q1023 NOSIG

EHBK Flight Activity (Flightaware)

Listeners: 0 out of 355 total

MUAC Ruhr Sector: 132.515

MUAC/Eurocontrol Sollingen High (Archives)
Beek, Netherlands

Feed Status: UP

Click on your favorite media player to listen:
Listen with WinAmp to MUAC/Eurocontrol Sollingen High  Listen with iTunes to MUAC/Eurocontrol Sollingen High  Click here to listen if using Real Player  Click here to listen if using Windows Media Player

Or simply listen in your browser:

Listen right in your browser(in browser, requires Flash)

EHBK 241425Z AUTO 35007KT 290V060 9999 OVC045 19/08 Q1023 NOSIG

EHBK Flight Activity (Flightaware)

Listeners: 0 out of 355 total

MUAC Sollingen High Sector: 131.380

EHEH Approach (Archives)
Eindhoven, Netherlands

Feed Status: UP

Click on your favorite media player to listen:
Listen with WinAmp to EHEH Approach  Listen with iTunes to EHEH Approach  Click here to listen if using Real Player  Click here to listen if using Windows Media Player

Or simply listen in your browser:

Listen right in your browser(in browser, requires Flash)

EHEH 241425Z AUTO 35008KT 260V040 9999 FEW033 OVC038 19/10 Q1023 BLU 35007KT 9999 SCT045 BKN100

EHEH Flight Activity (Flightaware)

Listeners: 0 out of 355 total

Eindhoven Approach: 132.525
Eindhoven Arrival/Director: 124.525
Emergency/Guard: 121.500

EHEH Gnd/Twr/App
Eindhoven, Netherlands

Feed Status: DOWN
Offline since: 2018-05-29 17:37:02 UTC
EHEH 241425Z AUTO 35008KT 260V040 9999 FEW033 OVC038 19/10 Q1023 BLU 35007KT 9999 SCT045 BKN100

Eindhoven Approach: 132.525
Eindhoven Arrival/Director: 124.525
Eindhoven Ground: 121.930
Eindhoven Tower: 131.005
Gilze Rijen RAPCON: 122.100
Gilze Rijen RAPCON South: 123.180

EHEH Tower (Archives)
Eindhoven, Netherlands

Feed Status: UP

Click on your favorite media player to listen:
Listen with WinAmp to EHEH Tower  Listen with iTunes to EHEH Tower  Click here to listen if using Real Player  Click here to listen if using Windows Media Player

Or simply listen in your browser:

Listen right in your browser(in browser, requires Flash)

EHEH 241425Z AUTO 35008KT 260V040 9999 FEW033 OVC038 19/10 Q1023 BLU 35007KT 9999 SCT045 BKN100

EHEH Flight Activity (Flightaware)

Listeners: 0 out of 355 total

Budel Tower: 122.150
Eindhoven Tower: 131.005
Emergency/Guard: 121.500
Generic Tower: 122.100
Volkel Tower: 136.075

EHGG Approach (Archives)
Groningen, Netherlands

Feed Status: UP

Click on your favorite media player to listen:
Listen with WinAmp to EHGG Approach  Listen with iTunes to EHGG Approach  Click here to listen if using Real Player  Click here to listen if using Windows Media Player

Or simply listen in your browser:

Listen right in your browser(in browser, requires Flash)

EHGG 241425Z AUTO 32009KT 290V350 2700 SHRA SCT004 BKN005 BKN006 14/14 Q1022 TEMPO 7000 -DZ BKN010

EHGG Flight Activity (Flightaware)

Listeners: 0 out of 355 total

Eelde Approach: 120.305

EHGG ATIS (Archives)
Groningen, Netherlands

Feed Status: UP

Click on your favorite media player to listen:
Listen with WinAmp to EHGG ATIS  Listen with iTunes to EHGG ATIS  Click here to listen if using Real Player  Click here to listen if using Windows Media Player

Or simply listen in your browser:

Listen right in your browser(in browser, requires Flash)

EHGG 241425Z AUTO 32009KT 290V350 2700 SHRA SCT004 BKN005 BKN006 14/14 Q1022 TEMPO 7000 -DZ BKN010

EHGG Flight Activity (Flightaware)

Listeners: 0 out of 355 total

Groningen ATIS: 133.555

EHGG Ground (Archives)
Groningen, Netherlands

Feed Status: UP

Click on your favorite media player to listen:
Listen with WinAmp to EHGG Ground  Listen with iTunes to EHGG Ground  Click here to listen if using Real Player  Click here to listen if using Windows Media Player

Or simply listen in your browser:

Listen right in your browser(in browser, requires Flash)

EHGG 241425Z AUTO 32009KT 290V350 2700 SHRA SCT004 BKN005 BKN006 14/14 Q1022 TEMPO 7000 -DZ BKN010

EHGG Flight Activity (Flightaware)

Listeners: 0 out of 355 total

Eelde Clearance Delivery/Ground: 121.705

EHGG Guard/Emergency (Archives)
Groningen, Netherlands

Feed Status: UP

Click on your favorite media player to listen:
Listen with WinAmp to EHGG Guard/Emergency  Listen with iTunes to EHGG Guard/Emergency  Click here to listen if using Real Player  Click here to listen if using Windows Media Player

Or simply listen in your browser:

Listen right in your browser(in browser, requires Flash)

EHGG 241425Z AUTO 32009KT 290V350 2700 SHRA SCT004 BKN005 BKN006 14/14 Q1022 TEMPO 7000 -DZ BKN010

EHGG Flight Activity (Flightaware)

Listeners: 0 out of 355 total

Emergency/Guard: 121.500

EHGG Tower (Archives)
Groningen, Netherlands

Feed Status: UP

Click on your favorite media player to listen:
Listen with WinAmp to EHGG Tower  Listen with iTunes to EHGG Tower  Click here to listen if using Real Player  Click here to listen if using Windows Media Player

Or simply listen in your browser:

Listen right in your browser(in browser, requires Flash)

EHGG 241425Z AUTO 32009KT 290V350 2700 SHRA SCT004 BKN005 BKN006 14/14 Q1022 TEMPO 7000 -DZ BKN010

EHGG Flight Activity (Flightaware)

Listeners: 0 out of 355 total

Eelde Tower: 118.705

MUAC/Eurocontrol (EHGG Area) (Archives)
Groningen, Netherlands

Feed Status: UP

Click on your favorite media player to listen:
Listen with WinAmp to MUAC/Eurocontrol (EHGG Area)  Listen with iTunes to MUAC/Eurocontrol (EHGG Area)  Click here to listen if using Real Player  Click here to listen if using Windows Media Player

Or simply listen in your browser:

Listen right in your browser(in browser, requires Flash)

EHGG 241425Z AUTO 32009KT 290V350 2700 SHRA SCT004 BKN005 BKN006 14/14 Q1022 TEMPO 7000 -DZ BKN010

EHGG Flight Activity (Flightaware)

Listeners: 0 out of 355 total

MUAC Holstein High Sector: 132.775
MUAC Holstein Sector: 120.9333
MUAC Javer High Sector: 134.700
MUAC Jever Sector: 136.4666

EHGR Twr/TMA/App (Archives)
Breda, Netherlands

Feed Status: UP

Click on your favorite media player to listen:
Listen with WinAmp to EHGR Twr/TMA/App  Listen with iTunes to EHGR Twr/TMA/App  Click here to listen if using Real Player  Click here to listen if using Windows Media Player

Or simply listen in your browser:

Listen right in your browser(in browser, requires Flash)

EHGR 241425Z AUTO 36010KT 290V040 9999 BKN035 OVC039 19/10 Q1023 BLU

EHGR Flight Activity (Flightaware)

Listeners: 1 out of 355 total

Gilze Rijen Arrival U09 (UHF): 373.375
Gilze Rijen TMA D U16 (UHF) : 371.525
Gilze Rijen Tower U12 (UHF): 369.500

EHGR Mode-S Tracking
EHEH Mode-S Tracking

Dutch Mil Radar (Archives)
Lelystad, Netherlands

Feed Status: UP

Click on your favorite media player to listen:
Listen with WinAmp to Dutch Mil Radar  Listen with iTunes to Dutch Mil Radar  Click here to listen if using Real Player  Click here to listen if using Windows Media Player

Or simply listen in your browser:

Listen right in your browser(in browser, requires Flash)

EHLE Flight Activity (Flightaware)

Listeners: 0 out of 355 total

Dutch Mil Flight Info: 264.325
Dutch Mil Radar: 128.550
Dutch Mil Radar: 132.350

EHLE Air to Air (Archives)
Lelystad, Netherlands

Feed Status: UP

Click on your favorite media player to listen:
Listen with WinAmp to EHLE Air to Air  Listen with iTunes to EHLE Air to Air  Click here to listen if using Real Player  Click here to listen if using Windows Media Player

Or simply listen in your browser:

Listen right in your browser(in browser, requires Flash)

EHLE Flight Activity (Flightaware)

Listeners: 0 out of 355 total

Lelystad Air to Air: 123.450

EHLE Fokker Four (Archives)
Lelystad, Netherlands

Feed Status: UP

Click on your favorite media player to listen:
Listen with WinAmp to EHLE Fokker Four  Listen with iTunes to EHLE Fokker Four  Click here to listen if using Real Player  Click here to listen if using Windows Media Player

Or simply listen in your browser:

Listen right in your browser(in browser, requires Flash)

EHLE Flight Activity (Flightaware)

Listeners: 0 out of 355 total

Lelystad Fokker Four: 123.525

EHLE Microlight Aircraft (Archives)
Lelystad, Netherlands

Feed Status: UP

Click on your favorite media player to listen:
Listen with WinAmp to EHLE Microlight Aircraft  Listen with iTunes to EHLE Microlight Aircraft  Click here to listen if using Real Player  Click here to listen if using Windows Media Player

Or simply listen in your browser:

Listen right in your browser(in browser, requires Flash)

EHLE Flight Activity (Flightaware)

Listeners: 0 out of 355 total

Lelystad Microlight Aircraft: 123.825

EHLE Radio (Archives)
Lelystad, Netherlands

Feed Status: UP

Click on your favorite media player to listen:
Listen with WinAmp to EHLE Radio  Listen with iTunes to EHLE Radio  Click here to listen if using Real Player  Click here to listen if using Windows Media Player

Or simply listen in your browser:

Listen right in your browser(in browser, requires Flash)

EHLE Flight Activity (Flightaware)

Listeners: 0 out of 355 total

Lelystad Radio: 123.675

EHMC/EHML Military/Radar (Archives)
Nieuw-Milligen, Netherlands

Feed Status: UP

Click on your favorite media player to listen:
Listen with WinAmp to EHMC/EHML Military/Radar  Listen with iTunes to EHMC/EHML Military/Radar  Click here to listen if using Real Player  Click here to listen if using Windows Media Player

Or simply listen in your browser:

Listen right in your browser(in browser, requires Flash)

EHMC Flight Activity (Flightaware)

Listeners: 0 out of 355 total

AMCC: 234.000
Belga Radar: 129.325
Command Post: 313.550
Dutch Military Radar: 120.825
Dutch Military Radar: 125.925
Dutch Military Radar: 128.350
GCI: 363.100
Lippe Radar: 131.075
London Mil: 135.275
Meteo: 284.425

Military Mode-S Logs
REACH Flights Europe Mode-S Logs
NOTE: Due to receiver distance only aircraft can be heard

EHMC/EHML Military/Radar (Archives)
Nieuw-Milligen, Netherlands

Feed Status: UP

Click on your favorite media player to listen:
Listen with WinAmp to EHMC/EHML Military/Radar  Listen with iTunes to EHMC/EHML Military/Radar  Click here to listen if using Real Player  Click here to listen if using Windows Media Player

Or simply listen in your browser:

Listen right in your browser(in browser, requires Flash)

EHMC Flight Activity (Flightaware)

Listeners: 0 out of 355 total

AMCC: 234.000
Belga Radar: 129.325
Command Post: 313.550
Dutch Military Radar: 120.825
Dutch Military Radar: 125.925
Dutch Military Radar: 128.350
GCI: 363.100
Lippe Radar: 131.075
London Mil: 135.275
Meteo: 284.425

Military Mode-S Logs
REACH Flights Europe Mode-S Logs
NOTE: Due to receiver distance only aircraft can be heard

EHRD Approach (Archives)
Rotterdam, Netherlands

Feed Status: UP

Click on your favorite media player to listen:
Listen with WinAmp to EHRD Approach  Listen with iTunes to EHRD Approach  Click here to listen if using Real Player  Click here to listen if using Windows Media Player

Or simply listen in your browser:

Listen right in your browser(in browser, requires Flash)

EHRD 241425Z AUTO 35010KT 310V050 9999 FEW020 SCT025 OVC029 17/10 Q1024 NOSIG

EHRD Flight Activity (Flightaware)

Listeners: 0 out of 355 total

Rotterdam Approach: 124.535
Rotterdam Approach: 281.050

EHRD Clearance Delivery (Archives)
Rotterdam, Netherlands

Feed Status: UP

Click on your favorite media player to listen:
Listen with WinAmp to EHRD Clearance Delivery  Listen with iTunes to EHRD Clearance Delivery  Click here to listen if using Real Player  Click here to listen if using Windows Media Player

Or simply listen in your browser:

Listen right in your browser(in browser, requires Flash)

EHRD 241425Z AUTO 35010KT 310V050 9999 FEW020 SCT025 OVC029 17/10 Q1024 NOSIG

EHRD Flight Activity (Flightaware)

Listeners: 0 out of 355 total

Rotterdam Del/Gnd: 122.180

EHRD Del/Twr (Archives)
Rotterdam, Netherlands

Feed Status: UP

Click on your favorite media player to listen:
Listen with WinAmp to EHRD Del/Twr  Listen with iTunes to EHRD Del/Twr  Click here to listen if using Real Player  Click here to listen if using Windows Media Player

Or simply listen in your browser:

Listen right in your browser(in browser, requires Flash)

EHRD 241425Z AUTO 35010KT 310V050 9999 FEW020 SCT025 OVC029 17/10 Q1024 NOSIG

EHRD Flight Activity (Flightaware)

Listeners: 0 out of 355 total

Rotterdam Del/Gnd: 122.180
Rotterdam Tower: 118.205

EHRD Gnd/Twr/App (Archives)
Rotterdam, Netherlands

Feed Status: UP

Click on your favorite media player to listen:
Listen with WinAmp to EHRD Gnd/Twr/App  Listen with iTunes to EHRD Gnd/Twr/App  Click here to listen if using Real Player  Click here to listen if using Windows Media Player

Or simply listen in your browser:

Listen right in your browser(in browser, requires Flash)

EHRD 241425Z AUTO 35010KT 310V050 9999 FEW020 SCT025 OVC029 17/10 Q1024 NOSIG

EHRD Flight Activity (Flightaware)

Listeners: 0 out of 355 total

Adam Info: 124.300
Regional Guard: 119.705
Rotterdam Approach: 127.025
Rotterdam Del/Gnd: 122.180
Rotterdam Tower: 118.205
SAR: 123.100
SAR: 282.800

EHRD Tower (Archives)
Rotterdam, Netherlands

Feed Status: UP

Click on your favorite media player to listen:
Listen with WinAmp to EHRD Tower  Listen with iTunes to EHRD Tower  Click here to listen if using Real Player  Click here to listen if using Windows Media Player

Or simply listen in your browser:

Listen right in your browser(in browser, requires Flash)

EHRD 241425Z AUTO 35010KT 310V050 9999 FEW020 SCT025 OVC029 17/10 Q1024 NOSIG

EHRD Flight Activity (Flightaware)

Listeners: 0 out of 355 total

Rotterdam Tower: 118.205
Rotterdam Tower: 362.300

EHRD Twr/App
Rotterdam, Netherlands

Feed Status: DOWN
Offline since: 2018-06-24 05:15:03 UTC
EHRD 241425Z AUTO 35010KT 310V050 9999 FEW020 SCT025 OVC029 17/10 Q1024 NOSIG

Rotterdam Approach: 127.025
Rotterdam Tower: 118.205

EHRD ADS-B Logs

EHTX Gnd/Twr (Archives)
Texel, Netherlands

Feed Status: UP

Click on your favorite media player to listen:
Listen with WinAmp to EHTX Gnd/Twr  Listen with iTunes to EHTX Gnd/Twr  Click here to listen if using Real Player  Click here to listen if using Windows Media Player

Or simply listen in your browser:

Listen right in your browser(in browser, requires Flash)

EHTX Flight Activity (Flightaware)

Listeners: 0 out of 355 total

Texel Radio (Ground/Tower): 119.300

EHVL CTAF/Range Control (Archives)
Vlieland, Netherlands

Feed Status: UP

Click on your favorite media player to listen:
Listen with WinAmp to EHVL CTAF/Range Control  Listen with iTunes to EHVL CTAF/Range Control  Click here to listen if using Real Player  Click here to listen if using Windows Media Player

Or simply listen in your browser:

Listen right in your browser(in browser, requires Flash)

EHVL 241425Z AUTO 33017KT 9999 SCT007 BKN009 OVC010 14/13 Q1023 REDZ GRN

EHVL Flight Activity (Flightaware)

Listeners: 0 out of 355 total

Cornfield VHF (CTAF): 122.100
Range Controller (Primary): 279.000
Range Controller (Secondary): 369.200
Range Controller VHF: 138.075

EICK Approach/Departure (Archives)
Cork, Ireland

Feed Status: UP

Click on your favorite media player to listen:
Listen with WinAmp to EICK Approach/Departure  Listen with iTunes to EICK Approach/Departure  Click here to listen if using Real Player  Click here to listen if using Windows Media Player

Or simply listen in your browser:

Listen right in your browser(in browser, requires Flash)

EICK 241400Z 18009KT CAVOK 20/07 Q1026 NOSIG

EICK Flight Activity (Flightaware)

Listeners: 0 out of 355 total

Cork Approach: 119.900

EICK Gnd/Twr/App/Dep (Archives)
Cork, Ireland

Feed Status: UP

Click on your favorite media player to listen:
Listen with WinAmp to EICK Gnd/Twr/App/Dep  Listen with iTunes to EICK Gnd/Twr/App/Dep  Click here to listen if using Real Player  Click here to listen if using Windows Media Player

Or simply listen in your browser:

Listen right in your browser(in browser, requires Flash)

EICK 241400Z 18009KT CAVOK 20/07 Q1026 NOSIG

EICK Flight Activity (Flightaware)

Listeners: 1 out of 355 total

Cork Approach: 119.900
Cork Ground: 121.850
Cork Tower: 119.300

EICK Ground/Tower (Archives)
Cork, Ireland

Feed Status: UP

Click on your favorite media player to listen:
Listen with WinAmp to EICK Ground/Tower  Listen with iTunes to EICK Ground/Tower  Click here to listen if using Real Player  Click here to listen if using Windows Media Player

Or simply listen in your browser:

Listen right in your browser(in browser, requires Flash)

EICK 241400Z 18009KT CAVOK 20/07 Q1026 NOSIG

EICK Flight Activity (Flightaware)

Listeners: 1 out of 355 total

Cork Ground: 121.850
Cork Tower: 119.300

EIDW Approach (Archives)
Dublin, Ireland

Feed Status: UP

Click on your favorite media player to listen:
Listen with WinAmp to EIDW Approach  Listen with iTunes to EIDW Approach  Click here to listen if using Real Player  Click here to listen if using Windows Media Player

Or simply listen in your browser:

Listen right in your browser(in browser, requires Flash)

EIDW 241400Z 12012KT 9999 FEW030 22/11 Q1025 NOSIG

EIDW Flight Activity (Flightaware)

Listeners: 0 out of 355 total

Dublin Approach: 121.100

EIDW Approach (Final) (Archives)
Dublin, Ireland

Feed Status: UP

Click on your favorite media player to listen:
Listen with WinAmp to EIDW Approach (Final)  Listen with iTunes to EIDW Approach (Final)  Click here to listen if using Real Player  Click here to listen if using Windows Media Player

Or simply listen in your browser:

Listen right in your browser(in browser, requires Flash)

EIDW 241400Z 12012KT 9999 FEW030 22/11 Q1025 NOSIG

EIDW Flight Activity (Flightaware)

Listeners: 1 out of 355 total

Dublin Approach (Final): 119.925

EIDW Clearance Delivery (Archives)
Dublin, Ireland

Feed Status: UP

Click on your favorite media player to listen:
Listen with WinAmp to EIDW Clearance Delivery  Listen with iTunes to EIDW Clearance Delivery  Click here to listen if using Real Player  Click here to listen if using Windows Media Player

Or simply listen in your browser:

Listen right in your browser(in browser, requires Flash)

EIDW 241400Z 12012KT 9999 FEW030 22/11 Q1025 NOSIG

EIDW Flight Activity (Flightaware)

Listeners: 0 out of 355 total

Dublin Clearance Delivery: 121.875

EIDW Del/Gnd/Twr/App/Center (Archives)
Dublin, Ireland

Feed Status: UP

Click on your favorite media player to listen:
Listen with WinAmp to EIDW Del/Gnd/Twr/App/Center  Listen with iTunes to EIDW Del/Gnd/Twr/App/Center  Click here to listen if using Real Player  Click here to listen if using Windows Media Player

Or simply listen in your browser:

Listen right in your browser(in browser, requires Flash)

EIDW 241400Z 12012KT 9999 FEW030 22/11 Q1025 NOSIG

EIDW Flight Activity (Flightaware)

Listeners: 6 out of 355 total

Dublin Approach: 121.100
Dublin Approach (backup): 119.550
Dublin Centre North: 129.175
Dublin Centre South: 126.250
Dublin Clearance Delivery: 121.875
Dublin FIS: 118.500
Dublin Ground: 121.800
Dublin Tower: 118.600

EIDW Ground (Archives)
Dublin, Ireland

Feed Status: UP

Click on your favorite media player to listen:
Listen with WinAmp to EIDW Ground  Listen with iTunes to EIDW Ground  Click here to listen if using Real Player  Click here to listen if using Windows Media Player

Or simply listen in your browser:

Listen right in your browser(in browser, requires Flash)

EIDW 241400Z 12012KT 9999 FEW030 22/11 Q1025 NOSIG

EIDW Flight Activity (Flightaware)

Listeners: 0 out of 355 total

Dublin Ground: 121.800

EIDW Ground (North) (Archives)
Dublin, Ireland

Feed Status: UP

Click on your favorite media player to listen:
Listen with WinAmp to EIDW Ground (North)  Listen with iTunes to EIDW Ground (North)  Click here to listen if using Real Player  Click here to listen if using Windows Media Player

Or simply listen in your browser:

Listen right in your browser(in browser, requires Flash)

EIDW 241400Z 12012KT 9999 FEW030 22/11 Q1025 NOSIG

EIDW Flight Activity (Flightaware)

Listeners: 0 out of 355 total

Dublin Ground (North): 118.750

EIDW Ops (Archives)
Dublin, Ireland

Feed Status: UP

Click on your favorite media player to listen:
Listen with WinAmp to EIDW Ops  Listen with iTunes to EIDW Ops  Click here to listen if using Real Player  Click here to listen if using Windows Media Player

Or simply listen in your browser:

Listen right in your browser(in browser, requires Flash)

EIDW 241400Z 12012KT 9999 FEW030 22/11 Q1025 NOSIG

EIDW Flight Activity (Flightaware)

Listeners: 0 out of 355 total

Misc:

EIDW Tower (Archives)
Dublin, Ireland

Feed Status: UP

Click on your favorite media player to listen:
Listen with WinAmp to EIDW Tower  Listen with iTunes to EIDW Tower  Click here to listen if using Real Player  Click here to listen if using Windows Media Player

Or simply listen in your browser:

Listen right in your browser(in browser, requires Flash)

EIDW 241400Z 12012KT 9999 FEW030 22/11 Q1025 NOSIG

EIDW Flight Activity (Flightaware)

Listeners: 2 out of 355 total

Dublin Tower: 118.600

EIKN Gnd/Twr/App (Archives)
Charlestown, Ireland

Feed Status: UP

Click on your favorite media player to listen:
Listen with WinAmp to EIKN Gnd/Twr/App  Listen with iTunes to EIKN Gnd/Twr/App  Click here to listen if using Real Player  Click here to listen if using Windows Media Player

Or simply listen in your browser:

Listen right in your browser(in browser, requires Flash)

EIKN 241400Z 21006KT 170V290 CAVOK 22/07 Q1025 NOSIG

EIKN Flight Activity (Flightaware)

Listeners: 0 out of 355 total

Connaught Ground: 121.900
Connaught Tower: 130.700
Shannon Low Level: 119.075

Special Note: Sponsored by CAC

EINN Approach/Departure (Archives)
Shannon, Ireland

Feed Status: UP

Click on your favorite media player to listen:
Listen with WinAmp to EINN Approach/Departure  Listen with iTunes to EINN Approach/Departure  Click here to listen if using Real Player  Click here to listen if using Windows Media Player

Or simply listen in your browser:

Listen right in your browser(in browser, requires Flash)

EINN 241400Z VRB03KT CAVOK 25/07 Q1024 NOSIG

EINN Flight Activity (Flightaware)

Listeners: 1 out of 355 total

Shannon Approach Radar: 121.400
Shannon Low: 124.700

EINN Gnd/Twr/Ops (Archives)
Shannon, Ireland

Feed Status: UP

Click on your favorite media player to listen:
Listen with WinAmp to EINN Gnd/Twr/Ops  Listen with iTunes to EINN Gnd/Twr/Ops  Click here to listen if using Real Player  Click here to listen if using Windows Media Player

Or simply listen in your browser:

Listen right in your browser(in browser, requires Flash)

EINN 241400Z VRB03KT CAVOK 25/07 Q1024 NOSIG

EINN Flight Activity (Flightaware)

Listeners: 1 out of 355 total

Aer Lingus Ops: 131.500
Service Air Ops: 131.450
Shannon Ground: 121.800
Shannon Tower: 118.700
Sig Ops (Pre-Clearance): 131.590

EINN Shannon Control High #1 (Archives)
Shannon, Ireland

Feed Status: UP

Click on your favorite media player to listen:
Listen with WinAmp to EINN Shannon Control High #1  Listen with iTunes to EINN Shannon Control High #1  Click here to listen if using Real Player  Click here to listen if using Windows Media Player

Or simply listen in your browser:

Listen right in your browser(in browser, requires Flash)

EINN 241400Z VRB03KT CAVOK 25/07 Q1024 NOSIG

EINN Flight Activity (Flightaware)

Listeners: 2 out of 355 total

Shannon Clearance (Oceanic only): 121.700
Shannon Control: 134.630
Shannon Control: 134.260
Shannon Control: 119.075
Shannon Control (BABAN/DEVOL Sector): 132.150
Shannon Control (Cork Sector): 131.150
Shannon Control (Shannon Sector): 134.280
Shannon Control (SOTA Sector): 135.600
Shannon Control NOTA: 125.875
Shannon Control NOTA: 122.980
Shannon High Level (SOTA Sector): 135.230
Shanwick Radio: 127.650
Track Information: 133.800

EINN Twr/App #1 (Archives)
Shannon, Ireland

Feed Status: UP

Click on your favorite media player to listen:
Listen with WinAmp to EINN Twr/App #1  Listen with iTunes to EINN Twr/App #1  Click here to listen if using Real Player  Click here to listen if using Windows Media Player

Or simply listen in your browser:

Listen right in your browser(in browser, requires Flash)

EINN 241400Z VRB03KT CAVOK 25/07 Q1024 NOSIG

EINN Flight Activity (Flightaware)

Listeners: 2 out of 355 total

Aer Lingus Ops: 131.500
Service Air Ops: 131.450
Shannon Approach Radar: 121.400
Shannon Control: Misc
Shannon Ground: 121.800
Shannon Tower: 118.700
Sig Ops (Pre-Clearance): 131.590

EKBI/EKVD Approach
Vamdrup, Denmark

Feed Status: DOWN
Offline since: 2016-05-10 18:24:04 UTC
EKBI 241420Z AUTO 28010KT 240V300 9999NDV FEW170/// 19/12 Q1017

Billund Approach: 127.575
Skrydstrup Approach: 127.475
Vamdrup AFIS: 120.500

ENAT Twr/App/Control (Archives)
Alta, Norway

Feed Status: UP

Click on your favorite media player to listen:
Listen with WinAmp to ENAT Twr/App/Control  Listen with iTunes to ENAT Twr/App/Control  Click here to listen if using Real Player  Click here to listen if using Windows Media Player

Or simply listen in your browser:

Listen right in your browser(in browser, requires Flash)

ENAT 241350Z 27010KT 9999 BKN045 11/02 Q1009 RMK WIND 700FT 26018KT

ENAT Flight Activity (Flightaware)

Listeners: 0 out of 355 total

Alta Tower (to boat, Harbour Channel 12): 156.600
Alta Tower (to vehicle): 462.400
Alta Tower/Approach: 120.400
Norway Control: 126.700

ENBO Approach (Archives)
Bodo, Norway

Feed Status: UP

Click on your favorite media player to listen:
Listen with WinAmp to ENBO Approach  Listen with iTunes to ENBO Approach  Click here to listen if using Real Player  Click here to listen if using Windows Media Player

Or simply listen in your browser:

Listen right in your browser(in browser, requires Flash)

ENBO 241420Z 24013KT 9999 FEW012 BKN040 10/09 Q1014 NOSIG

ENBO Flight Activity (Flightaware)

Listeners: 0 out of 355 total

Bodo Approach: 119.700

ENBO Tower (Archives)
Bodo, Norway

Feed Status: UP

Click on your favorite media player to listen:
Listen with WinAmp to ENBO Tower  Listen with iTunes to ENBO Tower  Click here to listen if using Real Player  Click here to listen if using Windows Media Player

Or simply listen in your browser:

Listen right in your browser(in browser, requires Flash)

ENBO 241420Z 24013KT 9999 FEW012 BKN040 10/09 Q1014 NOSIG

ENBO Flight Activity (Flightaware)

Listeners: 0 out of 355 total

Bodo Tower: 118.100

ENCN Tower/Approach (Archives)
Kristiansand, Norway

Feed Status: UP

Click on your favorite media player to listen:
Listen with WinAmp to ENCN Tower/Approach  Listen with iTunes to ENCN Tower/Approach  Click here to listen if using Real Player  Click here to listen if using Windows Media Player

Or simply listen in your browser:

Listen right in your browser(in browser, requires Flash)

ENCN 241420Z 19009KT CAVOK 19/09 Q1016

ENCN Flight Activity (Flightaware)

Listeners: 0 out of 355 total

Kjevik Tower: 118.100
Kjevik Tower/Approach: 119.950

ENEV Twr/App/ACC (Archives)
Evenes, Norway

Feed Status: UP

Click on your favorite media player to listen:
Listen with WinAmp to ENEV Twr/App/ACC  Listen with iTunes to ENEV Twr/App/ACC  Click here to listen if using Real Player  Click here to listen if using Windows Media Player

Or simply listen in your browser:

Listen right in your browser(in browser, requires Flash)

ENEV 241350Z 22009KT 190V260 9999 BKN061 10/04 Q1014 RMK WIND 1400FT 23012KT

ENEV Flight Activity (Flightaware)

Listeners: 0 out of 355 total

Evenes Approach: 120.100
Evenes Tower: 118.000
Norway ACC (Bodo Sector 25): 126.450

ENGM Approach (Archives)
Oslo, Norway

Feed Status: UP

Click on your favorite media player to listen:
Listen with WinAmp to ENGM Approach  Listen with iTunes to ENGM Approach  Click here to listen if using Real Player  Click here to listen if using Windows Media Player

Or simply listen in your browser:

Listen right in your browser(in browser, requires Flash)

ENGM 241420Z VRB02KT CAVOK 21/06 Q1015 NOSIG

ENGM Flight Activity (Flightaware)

Listeners: 1 out of 355 total

Oslo Approach: 118.475
Oslo Approach: 120.450

ENKB Twr/App (Archives)
Kristiansund, Norway

Feed Status: UP

Click on your favorite media player to listen:
Listen with WinAmp to ENKB Twr/App  Listen with iTunes to ENKB Twr/App  Click here to listen if using Real Player  Click here to listen if using Windows Media Player

Or simply listen in your browser:

Listen right in your browser(in browser, requires Flash)

ENKB 241420Z 26009KT 7000 FEW004 SCT006 BKN016 12/11 Q1016 RMK WIND 745FT 26011KT

ENKB Flight Activity (Flightaware)

Listeners: 0 out of 355 total

Kvernberget Approach: 121.200
Kvernberget Tower: 118.300

ENKJ RDO (Archives)
Kjeller, Norway

Feed Status: UP

Click on your favorite media player to listen:
Listen with WinAmp to ENKJ RDO  Listen with iTunes to ENKJ RDO  Click here to listen if using Real Player  Click here to listen if using Windows Media Player

Or simply listen in your browser:

Listen right in your browser(in browser, requires Flash)

ENKJ Flight Activity (Flightaware)

Listeners: 0 out of 355 total

Kjeller RDO: 119.100

ENLI CTAF (Archives)
Farsund, Norway

Feed Status: UP

Click on your favorite media player to listen:
Listen with WinAmp to ENLI CTAF  Listen with iTunes to ENLI CTAF  Click here to listen if using Real Player  Click here to listen if using Windows Media Player

Or simply listen in your browser:

Listen right in your browser(in browser, requires Flash)

ENLI Flight Activity (Flightaware)

Listeners: 0 out of 355 total

Lista Traffic/Lista Radio: 126.450

ENRK CTAF (Archives)
Astorp, Norway

Feed Status: UP

Click on your favorite media player to listen:
Listen with WinAmp to ENRK CTAF  Listen with iTunes to ENRK CTAF  Click here to listen if using Real Player  Click here to listen if using Windows Media Player

Or simply listen in your browser:

Listen right in your browser(in browser, requires Flash)

ENRK Flight Activity (Flightaware)

Listeners: 0 out of 355 total

Rakkestad CTAF: 122.950

ENOR Sector 8 (Archives)
Moss, Norway

Feed Status: UP

Click on your favorite media player to listen:
Listen with WinAmp to ENOR Sector 8  Listen with iTunes to ENOR Sector 8  Click here to listen if using Real Player  Click here to listen if using Windows Media Player

Or simply listen in your browser:

Listen right in your browser(in browser, requires Flash)

ENOR Flight Activity (Flightaware)

Listeners: 0 out of 355 total

Norway Center (FIR) Sector 8: 118.875

ENRY Tower (Archives)
Moss, Norway

Feed Status: UP

Click on your favorite media player to listen:
Listen with WinAmp to ENRY Tower  Listen with iTunes to ENRY Tower  Click here to listen if using Real Player  Click here to listen if using Windows Media Player

Or simply listen in your browser:

Listen right in your browser(in browser, requires Flash)

ENRY 241420Z AUTO 31007KT 280V350 9999NDV NCD 23/06 Q1015

ENRY Flight Activity (Flightaware)

Listeners: 0 out of 355 total

Rygge Tower: 119.500

ENSO AFIS (Archives)
Stord, Norway

Feed Status: UP

Click on your favorite media player to listen:
Listen with WinAmp to ENSO AFIS  Listen with iTunes to ENSO AFIS  Click here to listen if using Real Player  Click here to listen if using Windows Media Player

Or simply listen in your browser:

Listen right in your browser(in browser, requires Flash)

ENSO 241420Z 32007KT 280V360 9999 VCSH SCT011 BKN017 14/11 Q1022

ENSO Flight Activity (Flightaware)

Listeners: 0 out of 355 total

Stord AFIS: 120.200

Feed sponsored by:

ENTC Tower/App
Langnes, Norway

Feed Status: DOWN
Offline since: 2018-04-12 23:10:03 UTC
ENTC 241420Z 26008KT 9999 -DZ FEW007 SCT013 BKN020 08/05 Q1012 NOSIG RMK WIND 2600FT 25020KT

Langnes Tower: 118.300
Langnes VDF (Approach): 123.750

ENTO Tower/App (Archives)
Sandefjord, Norway

Feed Status: UP

Click on your favorite media player to listen:
Listen with WinAmp to ENTO Tower/App  Listen with iTunes to ENTO Tower/App  Click here to listen if using Real Player  Click here to listen if using Windows Media Player

Or simply listen in your browser:

Listen right in your browser(in browser, requires Flash)

ENTO 241420Z 17009KT 150V230 CAVOK 21/08 Q1015

ENTO Flight Activity (Flightaware)

Listeners: 0 out of 355 total

ENJB Tonsberg Airport - Jarlsberg - CTAF: 122.300
Farris Approach (TCA): 134.050
Sandefjord Tower: 118.650

ENVA Gnd/Twr/App (Archives)
Trondheim, Norway

Feed Status: UP

Click on your favorite media player to listen:
Listen with WinAmp to ENVA Gnd/Twr/App  Listen with iTunes to ENVA Gnd/Twr/App  Click here to listen if using Real Player  Click here to listen if using Windows Media Player

Or simply listen in your browser:

Listen right in your browser(in browser, requires Flash)

ENVA 241420Z 22004KT 170V240 9999 BKN037 15/09 Q1016 RMK WIND 670FT 00000KT

ENVA Flight Activity (Flightaware)

Listeners: 1 out of 355 total

Trondheim Approach: 118.600
Trondheim Ground: 121.600
Trondheim Tower: 119.400

EPCD Radio
Lublin, Poland

Feed Status: DOWN
Offline since: 2018-06-24 11:46:03 UTC

Depultycze Radio: 119.575

EPGD Tower/Approach (Archives)
Gdansk, Poland

Feed Status: UP

Click on your favorite media player to listen:
Listen with WinAmp to EPGD Tower/Approach  Listen with iTunes to EPGD Tower/Approach  Click here to listen if using Real Player  Click here to listen if using Windows Media Player

Or simply listen in your browser:

Listen right in your browser(in browser, requires Flash)

EPGD 241400Z 35014KT 9999 FEW035 16/08 Q1014

EPGD Flight Activity (Flightaware)

Listeners: 1 out of 355 total

Gdansk Approach: 127.275
Gdansk Tower: 118.100

EPKR CTAF (Archives)
Krosno, Poland

Feed Status: UP

Click on your favorite media player to listen:
Listen with WinAmp to EPKR CTAF  Listen with iTunes to EPKR CTAF  Click here to listen if using Real Player  Click here to listen if using Windows Media Player

Or simply listen in your browser:

Listen right in your browser(in browser, requires Flash)

EPKR Flight Activity (Flightaware)

Listeners: 0 out of 355 total

Krosno CTAF: 122.400

EPKT Del/Twr/App (Archives)
Katowice, Poland

Feed Status: UP

Click on your favorite media player to listen:
Listen with WinAmp to EPKT Del/Twr/App  Listen with iTunes to EPKT Del/Twr/App  Click here to listen if using Real Player  Click here to listen if using Windows Media Player

Or simply listen in your browser:

Listen right in your browser(in browser, requires Flash)

EPKT 241400Z 28016KT 9999 FEW029CB BKN032 18/09 Q1015

EPKT Flight Activity (Flightaware)

Listeners: 0 out of 355 total

Katowice Delivery: 121.800
Katowice Tower: 129.250
Krakow Approach: 135.400
Krakow Approach: 121.075

EPKT Delivery/Approach (Archives)
Katowice, Poland

Feed Status: UP

Click on your favorite media player to listen:
Listen with WinAmp to EPKT Delivery/Approach  Listen with iTunes to EPKT Delivery/Approach  Click here to listen if using Real Player  Click here to listen if using Windows Media Player

Or simply listen in your browser:

Listen right in your browser(in browser, requires Flash)

EPKT 241400Z 28016KT 9999 FEW029CB BKN032 18/09 Q1015

EPKT Flight Activity (Flightaware)

Listeners: 0 out of 355 total

Katowice Delivery: 121.800
Krakow Approach: 121.075

EPKT Tower/Approach (Archives)
Katowice, Poland

Feed Status: UP

Click on your favorite media player to listen:
Listen with WinAmp to EPKT Tower/Approach  Listen with iTunes to EPKT Tower/Approach  Click here to listen if using Real Player  Click here to listen if using Windows Media Player

Or simply listen in your browser:

Listen right in your browser(in browser, requires Flash)

EPKT 241400Z 28016KT 9999 FEW029CB BKN032 18/09 Q1015

EPKT Flight Activity (Flightaware)

Listeners: 1 out of 355 total

Katowice Tower: 129.250
Krakow Approach: 135.400

EPLL Tower (Archives)
Lodz, Poland

Feed Status: UP

Click on your favorite media player to listen:
Listen with WinAmp to EPLL Tower  Listen with iTunes to EPLL Tower  Click here to listen if using Real Player  Click here to listen if using Windows Media Player

Or simply listen in your browser:

Listen right in your browser(in browser, requires Flash)

EPLL 241400Z 32005KT 280V360 6000 SHRA BKN048CB 12/10 Q1015

EPLL Flight Activity (Flightaware)

Listeners: 0 out of 355 total

Lodz Tower: 124.225

EPPO Twr/App/FIS (Archives)
Poznan, Poland

Feed Status: UP

Click on your favorite media player to listen:
Listen with WinAmp to EPPO Twr/App/FIS  Listen with iTunes to EPPO Twr/App/FIS  Click here to listen if using Real Player  Click here to listen if using Windows Media Player

Or simply listen in your browser:

Listen right in your browser(in browser, requires Flash)

EPPO 241400Z 05009KT 9999 -SHRA FEW024CB BKN034 13/11 Q1016

EPPO Flight Activity (Flightaware)

Listeners: 0 out of 355 total

Poznan Approach: 129.025
Poznan Approach: 127.225
Poznan FIS: 126.300
Poznan Tower: 119.975

Sponsored by: GearUp!

EPRZ Del/Twr/EPWW Radar (Archives)
Jasionka, Poland

Feed Status: UP

Click on your favorite media player to listen:
Listen with WinAmp to EPRZ Del/Twr/EPWW Radar  Listen with iTunes to EPRZ Del/Twr/EPWW Radar  Click here to listen if using Real Player  Click here to listen if using Windows Media Player

Or simply listen in your browser:

Listen right in your browser(in browser, requires Flash)

EPRZ 241400Z 24011KT 210V290 9999 SCT040 17/09 Q1015

EPRZ Flight Activity (Flightaware)

Listeners: 2 out of 355 total

EPWW Radar: 134.175
EPWW Radar: 120.950
Rzeszow Delivery: 121.800
Rzeszow Tower: 126.800

EPWA Approach #1 (Archives)
Warsaw, Poland

Feed Status: UP

Click on your favorite media player to listen:
Listen with WinAmp to EPWA Approach #1  Listen with iTunes to EPWA Approach #1  Click here to listen if using Real Player  Click here to listen if using Windows Media Player

Or simply listen in your browser:

Listen right in your browser(in browser, requires Flash)

EPWA 241400Z 27010KT 240V300 9999 SCT030TCU 17/10 Q1012 NOSIG

EPWA Flight Activity (Flightaware)

Listeners: 2 out of 355 total

Warsaw Approach: 128.800

EPWA Approach #2 (Archives)
Warsaw, Poland

Feed Status: UP

Click on your favorite media player to listen:
Listen with WinAmp to EPWA Approach #2  Listen with iTunes to EPWA Approach #2  Click here to listen if using Real Player  Click here to listen if using Windows Media Player

Or simply listen in your browser:

Listen right in your browser(in browser, requires Flash)

EPWA 241400Z 27010KT 240V300 9999 SCT030TCU 17/10 Q1012 NOSIG

EPWA Flight Activity (Flightaware)

Listeners: 0 out of 355 total

Warsaw Approach: 125.050

EPWA Clearance Delivery (Archives)
Warsaw, Poland

Feed Status: UP

Click on your favorite media player to listen:
Listen with WinAmp to EPWA Clearance Delivery  Listen with iTunes to EPWA Clearance Delivery  Click here to listen if using Real Player  Click here to listen if using Windows Media Player

Or simply listen in your browser:

Listen right in your browser(in browser, requires Flash)

EPWA 241400Z 27010KT 240V300 9999 SCT030TCU 17/10 Q1012 NOSIG

EPWA Flight Activity (Flightaware)

Listeners: 0 out of 355 total

Warsaw Clearance Delivery: 121.600

EPWA Director (Archives)
Warsaw, Poland

Feed Status: UP

Click on your favorite media player to listen:
Listen with WinAmp to EPWA Director  Listen with iTunes to EPWA Director  Click here to listen if using Real Player  Click here to listen if using Windows Media Player

Or simply listen in your browser:

Listen right in your browser(in browser, requires Flash)

EPWA 241400Z 27010KT 240V300 9999 SCT030TCU 17/10 Q1012 NOSIG

EPWA Flight Activity (Flightaware)

Listeners: 0 out of 355 total

Warsaw Director: 129.375

EPWA Ground (Archives)
Warsaw, Poland

Feed Status: UP

Click on your favorite media player to listen:
Listen with WinAmp to EPWA Ground  Listen with iTunes to EPWA Ground  Click here to listen if using Real Player  Click here to listen if using Windows Media Player

Or simply listen in your browser:

Listen right in your browser(in browser, requires Flash)

EPWA 241400Z 27010KT 240V300 9999 SCT030TCU 17/10 Q1012 NOSIG

EPWA Flight Activity (Flightaware)

Listeners: 0 out of 355 total

Warsaw Ground: 121.900

EPWA Tower #1 (Archives)
Warsaw, Poland

Feed Status: UP

Click on your favorite media player to listen:
Listen with WinAmp to EPWA Tower #1  Listen with iTunes to EPWA Tower #1  Click here to listen if using Real Player  Click here to listen if using Windows Media Player

Or simply listen in your browser:

Listen right in your browser(in browser, requires Flash)

EPWA 241400Z 27010KT 240V300 9999 SCT030TCU 17/10 Q1012 NOSIG

EPWA Flight Activity (Flightaware)

Listeners: 0 out of 355 total

Warsaw Tower: 118.300

EPWA Tower #2 (Archives)
Warsaw, Poland

Feed Status: UP

Click on your favorite media player to listen:
Listen with WinAmp to EPWA Tower #2  Listen with iTunes to EPWA Tower #2  Click here to listen if using Real Player  Click here to listen if using Windows Media Player

Or simply listen in your browser:

Listen right in your browser(in browser, requires Flash)

EPWA 241400Z 27010KT 240V300 9999 SCT030TCU 17/10 Q1012 NOSIG

EPWA Flight Activity (Flightaware)

Listeners: 0 out of 355 total

Warsaw Tower: 118.300

Audio provided by: datahouse.pl

EPWR Tower (Archives)
Wroclaw, Poland

Feed Status: UP

Click on your favorite media player to listen:
Listen with WinAmp to EPWR Tower  Listen with iTunes to EPWR Tower  Click here to listen if using Real Player  Click here to listen if using Windows Media Player

Or simply listen in your browser:

Listen right in your browser(in browser, requires Flash)

EPWR 241400Z 30016KT 9999 FEW025TCU 17/10 Q1016

EPWR Flight Activity (Flightaware)

Listeners: 0 out of 355 total

Wroclaw Tower: 120.250

EPWR Twr/App (Archives)
Wroclaw, Poland

Feed Status: UP

Click on your favorite media player to listen:
Listen with WinAmp to EPWR Twr/App  Listen with iTunes to EPWR Twr/App  Click here to listen if using Real Player  Click here to listen if using Windows Media Player

Or simply listen in your browser:

Listen right in your browser(in browser, requires Flash)

EPPO 241400Z 05009KT 9999 -SHRA FEW024CB BKN034 13/11 Q1016

EPPO Flight Activity (Flightaware)

Listeners: 0 out of 355 total

Poznan Approach (South): 127.225

EPWS AFIS (Archives)
Wroclaw, Poland

Feed Status: UP

Click on your favorite media player to listen:
Listen with WinAmp to EPWS AFIS  Listen with iTunes to EPWS AFIS  Click here to listen if using Real Player  Click here to listen if using Windows Media Player

Or simply listen in your browser:

Listen right in your browser(in browser, requires Flash)

EPWS Flight Activity (Flightaware)

Listeners: 0 out of 355 total

Szymanow Radio AFIS: 122.800

EPRZ Del/Twr/EPWW Radar (Archives)
Jasionka, Poland

Feed Status: UP

Click on your favorite media player to listen:
Listen with WinAmp to EPRZ Del/Twr/EPWW Radar  Listen with iTunes to EPRZ Del/Twr/EPWW Radar  Click here to listen if using Real Player  Click here to listen if using Windows Media Player

Or simply listen in your browser:

Listen right in your browser(in browser, requires Flash)

EPRZ 241400Z 24011KT 210V290 9999 SCT040 17/09 Q1015

EPRZ Flight Activity (Flightaware)

Listeners: 2 out of 355 total

EPWW Radar: 134.175
EPWW Radar: 120.950
Rzeszow Delivery: 121.800
Rzeszow Tower: 126.800

ESDF Twr/Control/Misc
Ronneby, Sweden

Feed Status: DOWN
Offline since: 2018-05-20 19:34:03 UTC
ESDF 241420Z 16008KT 9999 -SHRA BKN070TCU 19/09 Q1014

Cooperative Emergency Channel: 123.100
Emergency/Guard: 121.500
Marine Channel 16 (Emergency): 156.800
Ronneby Control: 128.450
Ronneby Tower: 119.200
Sweden Control (South): 134.975

ESGG Gnd/Twr/Control (Archives)
Gothenburg, Sweden

Feed Status: UP

Click on your favorite media player to listen:
Listen with WinAmp to ESGG Gnd/Twr/Control  Listen with iTunes to ESGG Gnd/Twr/Control  Click here to listen if using Real Player  Click here to listen if using Windows Media Player

Or simply listen in your browser:

Listen right in your browser(in browser, requires Flash)

ESGG 241420Z 25009KT 220V290 CAVOK 21/09 Q1015

ESGG Flight Activity (Flightaware)

Listeners: 0 out of 355 total

City Airport Ops: 130.850
City Airport Tower: 119.050
Emergency/Guard: 121.500
Goteborg Arrival: 120.125
Goteborg Control: 124.675
Goteborg Control: 124.200
Landvetter Ground: 121.900
Landvetter Tower: 118.600

ESML CTAF (Archives)
Landskrona, Sweden

Feed Status: UP

Click on your favorite media player to listen:
Listen with WinAmp to ESML CTAF  Listen with iTunes to ESML CTAF  Click here to listen if using Real Player  Click here to listen if using Windows Media Player

Or simply listen in your browser:

Listen right in your browser(in browser, requires Flash)

ESML Flight Activity (Flightaware)

Listeners: 0 out of 355 total

Landskrona CTAF: 123.350
Sweden Control: 134.975

ESML Webcam
ESML Weather

ESMQ Twr/Control (Archives)
Kalmar, Sweden

Feed Status: UP

Click on your favorite media player to listen:
Listen with WinAmp to ESMQ Twr/Control  Listen with iTunes to ESMQ Twr/Control  Click here to listen if using Real Player  Click here to listen if using Windows Media Player

Or simply listen in your browser:

Listen right in your browser(in browser, requires Flash)

ESMQ 241420Z 22005KT 170V250 9999 -RA FEW023CB 14/12 Q1013

ESMQ Flight Activity (Flightaware)

Listeners: 0 out of 355 total

Kalmar Handling: 131.800
Kalmar Tower: 130.800
Ronneby Control: 128.450

ESMS Tower (Archives)
Svedala, Sweden

Feed Status: UP

Click on your favorite media player to listen:
Listen with WinAmp to ESMS Tower  Listen with iTunes to ESMS Tower  Click here to listen if using Real Player  Click here to listen if using Windows Media Player

Or simply listen in your browser:

Listen right in your browser(in browser, requires Flash)

ESMS 241420Z 31009KT 280V360 CAVOK 21/09 Q1015

ESMS Flight Activity (Flightaware)

Listeners: 0 out of 355 total

Malmo Tower: 118.800

ESPA Twr/Control (Archives)
Lulea, Sweden

Feed Status: UP

Click on your favorite media player to listen:
Listen with WinAmp to ESPA Twr/Control  Listen with iTunes to ESPA Twr/Control  Click here to listen if using Real Player  Click here to listen if using Windows Media Player

Or simply listen in your browser:

Listen right in your browser(in browser, requires Flash)

ESPA 241420Z 18012KT CAVOK 14/07 Q1012

ESPA Flight Activity (Flightaware)

Listeners: 0 out of 355 total

Emergency/Guard: 121.500
Kallax Control: 125.450
Kallax Tower: 128.200
Sweden Control North: 131.050

ESSB Del/Gnd/Twr/App (Archives)
Stockholm, Sweden

Feed Status: UP

Click on your favorite media player to listen:
Listen with WinAmp to ESSB Del/Gnd/Twr/App  Listen with iTunes to ESSB Del/Gnd/Twr/App  Click here to listen if using Real Player  Click here to listen if using Windows Media Player

Or simply listen in your browser:

Listen right in your browser(in browser, requires Flash)

ESSB 241420Z 33009KT CAVOK 19/06 Q1014

ESSB Flight Activity (Flightaware)

Listeners: 1 out of 355 total

Arlanda Approach: 120.150
Arlanda Approach: 123.750
Arlanda Approach: 124.100
Arlanda Approach: 126.650
Bromma Clearance/Ground: 121.600
Bromma Tower: 118.100
Grafair: 131.750

ESSB Tower
Stockholm, Sweden

Feed Status: DOWN
Offline since: 2018-06-05 10:40:03 UTC
ESSB 241420Z 33009KT CAVOK 19/06 Q1014

Bromma Tower: 118.100

ESSG Misc (Archives)
Ludvika, Sweden

Feed Status: UP

Click on your favorite media player to listen:
Listen with WinAmp to ESSG Misc  Listen with iTunes to ESSG Misc  Click here to listen if using Real Player  Click here to listen if using Windows Media Player

Or simply listen in your browser:

Listen right in your browser(in browser, requires Flash)

ESSG Flight Activity (Flightaware)

Listeners: 0 out of 355 total

Avesta, Gagnef, Siljansnas: 123.550
Borlange Tower: 127.300
Dala-Jarna: 123.350
Emergency/Guard: 121.500
Karlstad: 119.450
Koping, Arboga, Borberg: 123.150
Ludvika CTAF: 122.100
Mora: 129.850
Orebro: 120.275
Orsa: 123.400
Soaring Freq: 123.500
Sweden Control: 131.125
Sweden Control: 129.175
Sweden Control: 118.200
Sweden Control: 132.150

ESSL Twr/App/Control
Linkoping, Sweden

Feed Status: DOWN
Offline since: 2018-05-20 17:55:03 UTC
ESSL 241420Z 36008KT 320V030 CAVOK 20/07 Q1014

Emergency/Guard: 121.500
Linkoping Tower: 118.800
Linkoping Tower (Secondary): 123.400
Ostgota Control: 127.350
Ostgota Control: 126.400
Ostgota Control: 135.850
Ostgota Control: 132.950
Ostgota Control: 128.700
Ostgota Control (Malmen Sector): 133.100
Ostgota Control/Sweden Control: 118.400

ESVQ CTAF (Archives)
Koping, Sweden

Feed Status: UP

Click on your favorite media player to listen:
Listen with WinAmp to ESVQ CTAF  Listen with iTunes to ESVQ CTAF  Click here to listen if using Real Player  Click here to listen if using Windows Media Player

Or simply listen in your browser:

Listen right in your browser(in browser, requires Flash)

ESVQ Flight Activity (Flightaware)

Listeners: 0 out of 355 total

Koping CTAF: 123.150

EVRA Approach (Archives)
Riga, Latvia

Feed Status: UP

Click on your favorite media player to listen:
Listen with WinAmp to EVRA Approach  Listen with iTunes to EVRA Approach  Click here to listen if using Real Player  Click here to listen if using Windows Media Player

Or simply listen in your browser:

Listen right in your browser(in browser, requires Flash)

EVRA 241420Z 33008KT 280V010 9999 SCT023 14/09 Q1009 NOSIG

EVRA Flight Activity (Flightaware)

Listeners: 0 out of 355 total

Riga Approach: 129.925

EVRA CTAF (Archives)
Riga, Latvia

Feed Status: UP

Click on your favorite media player to listen:
Listen with WinAmp to EVRA CTAF  Listen with iTunes to EVRA CTAF  Click here to listen if using Real Player  Click here to listen if using Windows Media Player

Or simply listen in your browser:

Listen right in your browser(in browser, requires Flash)

EVRA 241420Z 33008KT 280V010 9999 SCT023 14/09 Q1009 NOSIG

EVRA Flight Activity (Flightaware)

Listeners: 0 out of 355 total

Riga Approach (evenings): 134.850
Riga CTAF: 123.950

EVRA FIC (Archives)
Riga, Latvia

Feed Status: UP

Click on your favorite media player to listen:
Listen with WinAmp to EVRA FIC  Listen with iTunes to EVRA FIC  Click here to listen if using Real Player  Click here to listen if using Windows Media Player

Or simply listen in your browser:

Listen right in your browser(in browser, requires Flash)

EVRA 241420Z 33008KT 280V010 9999 SCT023 14/09 Q1009 NOSIG

EVRA Flight Activity (Flightaware)

Listeners: 0 out of 355 total

Riga FIC: 120.225

EVRA Tower/Guard (Archives)
Riga, Latvia

Feed Status: UP

Click on your favorite media player to listen:
Listen with WinAmp to EVRA Tower/Guard  Listen with iTunes to EVRA Tower/Guard  Click here to listen if using Real Player  Click here to listen if using Windows Media Player

Or simply listen in your browser:

Listen right in your browser(in browser, requires Flash)

EVRA 241420Z 33008KT 280V010 9999 SCT023 14/09 Q1009 NOSIG

EVRA Flight Activity (Flightaware)

Listeners: 0 out of 355 total

Emergency/Guard: 121.500
Riga Tower: 118.100

EYKA Gnd/Twr/FIS (Archives)
Kaunas, Lithuania

Feed Status: UP

Click on your favorite media player to listen:
Listen with WinAmp to EYKA Gnd/Twr/FIS  Listen with iTunes to EYKA Gnd/Twr/FIS  Click here to listen if using Real Player  Click here to listen if using Windows Media Player

Or simply listen in your browser:

Listen right in your browser(in browser, requires Flash)

EYKA 241420Z 27004KT 220V320 9999 SCT043 OVC092 14/10 Q1011

EYKA Flight Activity (Flightaware)

Listeners: 0 out of 355 total

EYKS (ALEKSOTAS) Info: 135.500
Kaunas Approach: 124.200
Kaunas Info: 124.600
Kaunas Tower: 118.500

EYVP CTAF (Archives)
Paluknys, Lithuania

Feed Status: UP

Click on your favorite media player to listen:
Listen with WinAmp to EYVP CTAF  Listen with iTunes to EYVP CTAF  Click here to listen if using Real Player  Click here to listen if using Windows Media Player

Or simply listen in your browser:

Listen right in your browser(in browser, requires Flash)

EYVP Flight Activity (Flightaware)

Listeners: 0 out of 355 total

EYVP Paluknis CTAF: 119.100

LATI Twr/App/ACC (Archives)
Tirana, Albania

Feed Status: UP

Click on your favorite media player to listen:
Listen with WinAmp to LATI Twr/App/ACC  Listen with iTunes to LATI Twr/App/ACC  Click here to listen if using Real Player  Click here to listen if using Windows Media Player

Or simply listen in your browser:

Listen right in your browser(in browser, requires Flash)

LATI 241420Z 31011KT CAVOK 27/13 Q1013 NOSIG

LATI Flight Activity (Flightaware)

Listeners: 0 out of 355 total

Tirana Approach/Departure: 133.150
Tirana Approach/Departure: 131.075
Tirana Tower: 122.500
Tirana Tower: 123.500

LBBG Twr/App (Archives)
Burgas, Bulgaria

Feed Status: UP

Click on your favorite media player to listen:
Listen with WinAmp to LBBG Twr/App  Listen with iTunes to LBBG Twr/App  Click here to listen if using Real Player  Click here to listen if using Windows Media Player

Or simply listen in your browser:

Listen right in your browser(in browser, requires Flash)

LBBG 241400Z 17007KT 150V210 9999 FEW015 SCT028TCU BKN033 20/16 Q1017 NOSIG

LBBG Flight Activity (Flightaware)

Listeners: 0 out of 355 total

Burgas Approach: 125.100
Burgas Tower: 118.000

LBSF Sofia Control East (Archives)
Sofia, Bulgaria

Feed Status: UP

Click on your favorite media player to listen:
Listen with WinAmp to LBSF Sofia Control East  Listen with iTunes to LBSF Sofia Control East  Click here to listen if using Real Player  Click here to listen if using Windows Media Player

Or simply listen in your browser:

Listen right in your browser(in browser, requires Flash)

LBSF 241400Z 30005KT 260V030 9999 SCT068 20/04 Q1017 NOSIG

LBSF Flight Activity (Flightaware)

Listeners: 1 out of 355 total

Sofia Control (East/Middle Sector): 129.100
Sofia Control (Varna Sector): 134.700

LBSF Twr/App #1 (Archives)
Sofia, Bulgaria

Feed Status: UP

Click on your favorite media player to listen:
Listen with WinAmp to LBSF Twr/App #1  Listen with iTunes to LBSF Twr/App #1  Click here to listen if using Real Player  Click here to listen if using Windows Media Player

Or simply listen in your browser:

Listen right in your browser(in browser, requires Flash)

LBSF 241400Z 30005KT 260V030 9999 SCT068 20/04 Q1017 NOSIG

LBSF Flight Activity (Flightaware)

Listeners: 0 out of 355 total

Sofia Approach: 123.700
Sofia Approach: 129.900
Sofia Tower: 118.100
Sofia Tower: 120.200

LBSF Twr/App #2 (Archives)
Sofia, Bulgaria

Feed Status: UP

Click on your favorite media player to listen:
Listen with WinAmp to LBSF Twr/App #2  Listen with iTunes to LBSF Twr/App #2  Click here to listen if using Real Player  Click here to listen if using Windows Media Player

Or simply listen in your browser:

Listen right in your browser(in browser, requires Flash)

LBSF 241400Z 30005KT 260V030 9999 SCT068 20/04 Q1017 NOSIG

LBSF Flight Activity (Flightaware)

Listeners: 0 out of 355 total

Sofia Approach: 123.700
Sofia Tower: 118.100

LBWN Tower/Approach (Archives)
Varna, Bulgaria

Feed Status: UP

Click on your favorite media player to listen:
Listen with WinAmp to LBWN Tower/Approach  Listen with iTunes to LBWN Tower/Approach  Click here to listen if using Real Player  Click here to listen if using Windows Media Player

Or simply listen in your browser:

Listen right in your browser(in browser, requires Flash)

LBWN 241400Z 13010KT 9999 SCT031 20/13 Q1017 NOSIG

LBWN Flight Activity (Flightaware)

Listeners: 0 out of 355 total

Varna Approach: 121.000
Varna Tower: 119.500

Bordeaux Control (Archives)
Bordeaux, France

Feed Status: UP

Click on your favorite media player to listen:
Listen with WinAmp to Bordeaux Control  Listen with iTunes to Bordeaux Control  Click here to listen if using Real Player  Click here to listen if using Windows Media Player

Or simply listen in your browser:

Listen right in your browser(in browser, requires Flash)

LFBD 241400Z AUTO 04009KT 360V090 CAVOK 28/11 Q1018 NOSIG

LFBD Flight Activity (Flightaware)

Listeners: 1 out of 355 total

Air to Air: 123.450
Bordeaux Control BN FL<300: 127.675
Bordeaux Control L3 FL>300: 134.250
Bordeaux Control R2 FL>300: 133.575
Emergency/Guard: 121.500

NOTE: In case of garbled sound, please refresh the player.

LFBU/LFBL Tower (Archives)
Limoges, France

Feed Status: UP

Click on your favorite media player to listen:
Listen with WinAmp to LFBU/LFBL Tower  Listen with iTunes to LFBU/LFBL Tower  Click here to listen if using Real Player  Click here to listen if using Windows Media Player

Or simply listen in your browser:

Listen right in your browser(in browser, requires Flash)

LFBU 241400Z AUTO 04013KT 360V080 CAVOK 26/12 Q1019 NOSIG

LFBU Flight Activity (Flightaware)

Listeners: 0 out of 355 total

LFBL Limoges Tower: 124.055
LFBU Angouleme Tower: 123.150
Medoc: 124.325

Bordeaux Control (Archives)
Angouleme, France

Feed Status: UP

Click on your favorite media player to listen:
Listen with WinAmp to Bordeaux Control  Listen with iTunes to Bordeaux Control  Click here to listen if using Real Player  Click here to listen if using Windows Media Player

Or simply listen in your browser:

Listen right in your browser(in browser, requires Flash)

LFBD 241400Z AUTO 04009KT 360V090 CAVOK 28/11 Q1018 NOSIG

LFBD Flight Activity (Flightaware)

Listeners: 1 out of 355 total

Air to Air: 123.450
Bordeaux Control BN FL<300: 127.675
Bordeaux Control L3 FL>300: 134.250
Bordeaux Control R2 FL>300: 133.575
Emergency/Guard: 121.500

NOTE: In case of garbled sound, please refresh the player.

LFBU/LFBL Tower (Archives)
Angouleme, France

Feed Status: UP

Click on your favorite media player to listen:
Listen with WinAmp to LFBU/LFBL Tower  Listen with iTunes to LFBU/LFBL Tower  Click here to listen if using Real Player  Click here to listen if using Windows Media Player

Or simply listen in your browser:

Listen right in your browser(in browser, requires Flash)

LFBU 241400Z AUTO 04013KT 360V080 CAVOK 26/12 Q1019 NOSIG

LFBU Flight Activity (Flightaware)

Listeners: 0 out of 355 total

LFBL Limoges Tower: 124.055
LFBU Angouleme Tower: 123.150
Medoc: 124.325

LFBZ Tower (Archives)
Biarritz, France

Feed Status: UP

Click on your favorite media player to listen:
Listen with WinAmp to LFBZ Tower  Listen with iTunes to LFBZ Tower  Click here to listen if using Real Player  Click here to listen if using Windows Media Player

Or simply listen in your browser:

Listen right in your browser(in browser, requires Flash)

LFBZ 241400Z AUTO 35009KT 320V040 CAVOK 25/15 Q1017 NOSIG

LFBZ Flight Activity (Flightaware)

Listeners: 0 out of 355 total


LFLL Tower (Archives)
Lyon, France

Feed Status: UP

Click on your favorite media player to listen:
Listen with WinAmp to LFLL Tower  Listen with iTunes to LFLL Tower  Click here to listen if using Real Player  Click here to listen if using Windows Media Player

Or simply listen in your browser:

Listen right in your browser(in browser, requires Flash)

LFLL 241400Z 35013KT 320V030 CAVOK 24/09 Q1018 NOSIG

LFLL Flight Activity (Flightaware)

Listeners: 0 out of 355 total

Lyon Tower: 120.450

Lyon FIS (Archives)
Lyon, France

Feed Status: UP

Click on your favorite media player to listen:
Listen with WinAmp to Lyon FIS  Listen with iTunes to Lyon FIS  Click here to listen if using Real Player  Click here to listen if using Windows Media Player

Or simply listen in your browser:

Listen right in your browser(in browser, requires Flash)

LFLL 241400Z 35013KT 320V030 CAVOK 24/09 Q1018 NOSIG

LFLL Flight Activity (Flightaware)

Listeners: 0 out of 355 total

Lyon FIS: 135.200

LFLP Twr/LFLB App (Archives)
Annecy, France

Feed Status: UP

Click on your favorite media player to listen:
Listen with WinAmp to LFLP Twr/LFLB App  Listen with iTunes to LFLP Twr/LFLB App  Click here to listen if using Real Player  Click here to listen if using Windows Media Player

Or simply listen in your browser:

Listen right in your browser(in browser, requires Flash)

LFLP 241400Z AUTO 32007KT 280V010 CAVOK 25/11 Q1018 NOSIG

LFLP Flight Activity (Flightaware)

Listeners: 1 out of 355 total

Annecy Tower: 118.200
Chambery Approach: 121.200
Chambery Info: 123.700

NOTE: Reception might be deteriorated due to terrain surrounding feed

LFLY Tower (Archives)
Bron, France

Feed Status: UP

Click on your favorite media player to listen:
Listen with WinAmp to LFLY Tower  Listen with iTunes to LFLY Tower  Click here to listen if using Real Player  Click here to listen if using Windows Media Player

Or simply listen in your browser:

Listen right in your browser(in browser, requires Flash)

LFLY 241400Z AUTO 36010KT 330V060 CAVOK 25/11 Q1018 NOSIG

LFLY Flight Activity (Flightaware)

Listeners: 0 out of 355 total

Lyon-Bron Tower: 118.100

Lyon FIS (Archives)
Bron, France

Feed Status: UP

Click on your favorite media player to listen:
Listen with WinAmp to Lyon FIS  Listen with iTunes to Lyon FIS  Click here to listen if using Real Player  Click here to listen if using Windows Media Player

Or simply listen in your browser:

Listen right in your browser(in browser, requires Flash)

LFLL 241400Z 35013KT 320V030 CAVOK 24/09 Q1018 NOSIG

LFLL Flight Activity (Flightaware)

Listeners: 0 out of 355 total

Lyon FIS: 135.200

LFMD Ground/Tower (Archives)
Cannes, France

Feed Status: UP

Click on your favorite media player to listen:
Listen with WinAmp to LFMD Ground/Tower  Listen with iTunes to LFMD Ground/Tower  Click here to listen if using Real Player  Click here to listen if using Windows Media Player

Or simply listen in your browser:

Listen right in your browser(in browser, requires Flash)

LFMD 241400Z AUTO 14007KT 100V170 9999 VCTS ///CB 24/17 Q1016 NOSIG

LFMD Flight Activity (Flightaware)

Listeners: 0 out of 355 total

Cannes Ground: 121.800
Cannes Tower: 118.625

LFMN Approach (Archives)
Nice, France

Feed Status: UP

Click on your favorite media player to listen:
Listen with WinAmp to LFMN Approach  Listen with iTunes to LFMN Approach  Click here to listen if using Real Player  Click here to listen if using Windows Media Player

Or simply listen in your browser:

Listen right in your browser(in browser, requires Flash)

LFMN 241400Z 08012KT 9999 FEW020 FEW033CB SCT130 BKN200 24/19 Q1016 NOSIG

LFMN Flight Activity (Flightaware)

Listeners: 0 out of 355 total

Nice Approach: 124.175

LFMN Control (High) (Archives)
Nice, France

Feed Status: UP

Click on your favorite media player to listen:
Listen with WinAmp to LFMN Control (High)  Listen with iTunes to LFMN Control (High)  Click here to listen if using Real Player  Click here to listen if using Windows Media Player

Or simply listen in your browser:

Listen right in your browser(in browser, requires Flash)

LFMN 241400Z 08012KT 9999 FEW020 FEW033CB SCT130 BKN200 24/19 Q1016 NOSIG

LFMN Flight Activity (Flightaware)

Listeners: 0 out of 355 total

Marseille Control Sector K1 (FL245-FL305): 126.780

LFMN FIS/Approach (Archives)
Nice, France

Feed Status: UP

Click on your favorite media player to listen:
Listen with WinAmp to LFMN FIS/Approach  Listen with iTunes to LFMN FIS/Approach  Click here to listen if using Real Player  Click here to listen if using Windows Media Player

Or simply listen in your browser:

Listen right in your browser(in browser, requires Flash)

LFMN 241400Z 08012KT 9999 FEW020 FEW033CB SCT130 BKN200 24/19 Q1016 NOSIG

LFMN Flight Activity (Flightaware)

Listeners: 0 out of 355 total

Nice FIS/Approach (TMA4 NICE 2500ft - FL115): 120.850

LFMN Ground/Tower (Archives)
Nice, France

Feed Status: UP

Click on your favorite media player to listen:
Listen with WinAmp to LFMN Ground/Tower  Listen with iTunes to LFMN Ground/Tower  Click here to listen if using Real Player  Click here to listen if using Windows Media Player

Or simply listen in your browser:

Listen right in your browser(in browser, requires Flash)

LFMN 241400Z 08012KT 9999 FEW020 FEW033CB SCT130 BKN200 24/19 Q1016 NOSIG

LFMN Flight Activity (Flightaware)

Listeners: 1 out of 355 total

Nice Ground: 121.700
Nice Tower: 118.700

LFPI Tower (Archives)
Paris, France

Feed Status: UP

Click on your favorite media player to listen:
Listen with WinAmp to LFPI Tower  Listen with iTunes to LFPI Tower  Click here to listen if using Real Player  Click here to listen if using Windows Media Player

Or simply listen in your browser:

Listen right in your browser(in browser, requires Flash)

LFPI Flight Activity (Flightaware)

Listeners: 0 out of 355 total

Issy-Les-Moulineaux Tower: 118.500

LFPO Approach (Archives)
Paris, France

Feed Status: UP

Click on your favorite media player to listen:
Listen with WinAmp to LFPO Approach  Listen with iTunes to LFPO Approach  Click here to listen if using Real Player  Click here to listen if using Windows Media Player

Or simply listen in your browser:

Listen right in your browser(in browser, requires Flash)

LFPO 241400Z 36010KT 310V040 CAVOK 22/09 Q1022 NOSIG

LFPO Flight Activity (Flightaware)

Listeners: 0 out of 355 total

Orly Approach: 124.450
Orly Approach: 118.850
Orly Approach: 120.850
Orly Approach: 123.875

LFPO Departure (Archives)
Paris, France

Feed Status: UP

Click on your favorite media player to listen:
Listen with WinAmp to LFPO Departure  Listen with iTunes to LFPO Departure  Click here to listen if using Real Player  Click here to listen if using Windows Media Player

Or simply listen in your browser:

Listen right in your browser(in browser, requires Flash)

LFPO 241400Z 36010KT 310V040 CAVOK 22/09 Q1022 NOSIG

LFPO Flight Activity (Flightaware)

Listeners: 2 out of 355 total

Orly Departure: 127.750

LFPO Tower (Archives)
Paris, France

Feed Status: UP

Click on your favorite media player to listen:
Listen with WinAmp to LFPO Tower  Listen with iTunes to LFPO Tower  Click here to listen if using Real Player  Click here to listen if using Windows Media Player

Or simply listen in your browser:

Listen right in your browser(in browser, requires Flash)

LFPO 241400Z 36010KT 310V040 CAVOK 22/09 Q1022 NOSIG

LFPO Flight Activity (Flightaware)

Listeners: 2 out of 355 total

Orly Tower: 120.500
Orly Tower: 118.700

LFSB Tower (Archives)
Basel, Switzerland

Feed Status: UP

Click on your favorite media player to listen:
Listen with WinAmp to LFSB Tower  Listen with iTunes to LFSB Tower  Click here to listen if using Real Player  Click here to listen if using Windows Media Player

Or simply listen in your browser:

Listen right in your browser(in browser, requires Flash)

LFSB 241400Z 35008KT 310V040 CAVOK 22/05 Q1020 NOSIG

LFSB Flight Activity (Flightaware)

Listeners: 0 out of 355 total

Mulhouse Tower: 118.300

LFST Approach #1 (Archives)
Strasbourg, France

Feed Status: UP

Click on your favorite media player to listen:
Listen with WinAmp to LFST Approach #1  Listen with iTunes to LFST Approach #1  Click here to listen if using Real Player  Click here to listen if using Windows Media Player

Or simply listen in your browser:

Listen right in your browser(in browser, requires Flash)

LFST 241400Z AUTO 36008KT 330V050 9999 FEW009 OVC056 21/09 Q1021 NOSIG

LFST Flight Activity (Flightaware)

Listeners: 0 out of 355 total

Strasbourg Approach: 120.700

LFST Approach #2 (Archives)
Strasbourg, France

Feed Status: UP

Click on your favorite media player to listen:
Listen with WinAmp to LFST Approach #2  Listen with iTunes to LFST Approach #2  Click here to listen if using Real Player  Click here to listen if using Windows Media Player

Or simply listen in your browser:

Listen right in your browser(in browser, requires Flash)

LFST 241400Z AUTO 36008KT 330V050 9999 FEW009 OVC056 21/09 Q1021 NOSIG

LFST Flight Activity (Flightaware)

Listeners: 0 out of 355 total

Strasbourg Approach: 119.575

LFST Emergency/Guard (Archives)
Strasbourg, France

Feed Status: UP

Click on your favorite media player to listen:
Listen with WinAmp to LFST Emergency/Guard  Listen with iTunes to LFST Emergency/Guard  Click here to listen if using Real Player  Click here to listen if using Windows Media Player

Or simply listen in your browser:

Listen right in your browser(in browser, requires Flash)

LFST 241400Z AUTO 36008KT 330V050 9999 FEW009 OVC056 21/09 Q1021 NOSIG

LFST Flight Activity (Flightaware)

Listeners: 0 out of 355 total

Emergency/Guard: 121.500

LFST Ground (Archives)
Strasbourg, France

Feed Status: UP

Click on your favorite media player to listen:
Listen with WinAmp to LFST Ground  Listen with iTunes to LFST Ground  Click here to listen if using Real Player  Click here to listen if using Windows Media Player

Or simply listen in your browser:

Listen right in your browser(in browser, requires Flash)

LFST 241400Z AUTO 36008KT 330V050 9999 FEW009 OVC056 21/09 Q1021 NOSIG

LFST Flight Activity (Flightaware)

Listeners: 0 out of 355 total

Strasbourg Ground: 121.800

LFST Tower (Archives)
Strasbourg, France

Feed Status: UP

Click on your favorite media player to listen:
Listen with WinAmp to LFST Tower  Listen with iTunes to LFST Tower  Click here to listen if using Real Player  Click here to listen if using Windows Media Player

Or simply listen in your browser:

Listen right in your browser(in browser, requires Flash)

LFST 241400Z AUTO 36008KT 330V050 9999 FEW009 OVC056 21/09 Q1021 NOSIG

LFST Flight Activity (Flightaware)

Listeners: 0 out of 355 total

Strasbourg Tower: 119.250

LGAV App/Radar
Athens, Greece

Feed Status: DOWN
Offline since: 2018-06-18 17:29:03 UTC
LGAV 241420Z 05021KT 9999 SCT030 25/16 Q1014 NOSIG

Athens Approach: 132.975
Athens Information: 130.925
Athens Information: 119.750
Athens Radar (Kerkira-Kefalinia-Paleohora Sectors FL460-FL345): 134.325
Athens Radar (Milos/Sitia Sectors FL460-FL345): 125.200
Athens Radar (Paleohora /Kerkira Sectors FL460-FL345): 133.725
Athens Radar (Paleohora Sector FL460-FL345): 124.625
Athens Radar (Rhodos/Kavos Sector FL460-FL345): 133.325
Emergency/Guard: 121.500
Makedonia Radar (Thessaloniki/Skopelos/Limnos/Kavala Sectors FL460-FL345): 133.575

LHBP Approach (Archives)
Budapest, Hungary

Feed Status: UP

Click on your favorite media player to listen:
Listen with WinAmp to LHBP Approach  Listen with iTunes to LHBP Approach  Click here to listen if using Real Player  Click here to listen if using Windows Media Player

Or simply listen in your browser:

Listen right in your browser(in browser, requires Flash)

LHBP 241400Z 28012KT CAVOK 19/09 Q1017 NOSIG

LHBP Flight Activity (Flightaware)

Listeners: 1 out of 355 total

Budapest Approach: 129.700
Budapest Approach: 122.975

LHBP Info (Archives)
Budapest, Hungary

Feed Status: UP

Click on your favorite media player to listen:
Listen with WinAmp to LHBP Info  Listen with iTunes to LHBP Info  Click here to listen if using Real Player  Click here to listen if using Windows Media Player

Or simply listen in your browser:

Listen right in your browser(in browser, requires Flash)

LHBP 241400Z 28012KT CAVOK 19/09 Q1017 NOSIG

LHBP Flight Activity (Flightaware)

Listeners: 3 out of 355 total

Budapest Info: 119.350

LHBP Tower (Archives)
Budapest, Hungary

Feed Status: UP

Click on your favorite media player to listen:
Listen with WinAmp to LHBP Tower  Listen with iTunes to LHBP Tower  Click here to listen if using Real Player  Click here to listen if using Windows Media Player

Or simply listen in your browser:

Listen right in your browser(in browser, requires Flash)

LHBP 241400Z 28012KT CAVOK 19/09 Q1017 NOSIG

LHBP Flight Activity (Flightaware)

Listeners: 2 out of 355 total

Budapest Tower: 118.100

LHBP Twr/Info (Archives)
Budapest, Hungary

Feed Status: UP

Click on your favorite media player to listen:
Listen with WinAmp to LHBP Twr/Info  Listen with iTunes to LHBP Twr/Info  Click here to listen if using Real Player  Click here to listen if using Windows Media Player

Or simply listen in your browser:

Listen right in your browser(in browser, requires Flash)

LHBP 241400Z 28012KT CAVOK 19/09 Q1017 NOSIG

LHBP Flight Activity (Flightaware)

Listeners: 0 out of 355 total

Budapest Info: 119.350
Budapest Tower: 118.100

LHCC Control (East/West) (Archives)
Budapest, Hungary

Feed Status: UP

Click on your favorite media player to listen:
Listen with WinAmp to LHCC Control (East/West)  Listen with iTunes to LHCC Control (East/West)  Click here to listen if using Real Player  Click here to listen if using Windows Media Player

Or simply listen in your browser:

Listen right in your browser(in browser, requires Flash)

LHBP 241400Z 28012KT CAVOK 19/09 Q1017 NOSIG

LHBP Flight Activity (Flightaware)

Listeners: 0 out of 355 total

Budapest Control (East Low Sector): 120.375
Budapest Control (West Low Sector): 133.200

LHDC Info/Tower (Archives)
Debrecen, Hungary

Feed Status: UP

Click on your favorite media player to listen:
Listen with WinAmp to LHDC Info/Tower  Listen with iTunes to LHDC Info/Tower  Click here to listen if using Real Player  Click here to listen if using Windows Media Player

Or simply listen in your browser:

Listen right in your browser(in browser, requires Flash)

LHDC 241345Z 25007KT CAVOK 21/06 Q1016 NOSIG

LHDC Flight Activity (Flightaware)

Listeners: 0 out of 355 total

Debrecen Info/Tower: 125.900

Dunaujvaros Airport CTAF (Archives)
Dunaujvaros, Hungary

Feed Status: UP

Click on your favorite media player to listen:
Listen with WinAmp to Dunaujvaros Airport CTAF  Listen with iTunes to Dunaujvaros Airport CTAF  Click here to listen if using Real Player  Click here to listen if using Windows Media Player

Or simply listen in your browser:

Listen right in your browser(in browser, requires Flash)

LHDV Flight Activity (Flightaware)

Listeners: 0 out of 355 total

Dunaujvaros CTAF: 130.800

LHEM CTAF (Archives)
Esztergom, Hungary

Feed Status: UP

Click on your favorite media player to listen:
Listen with WinAmp to LHEM CTAF  Listen with iTunes to LHEM CTAF  Click here to listen if using Real Player  Click here to listen if using Windows Media Player

Or simply listen in your browser:

Listen right in your browser(in browser, requires Flash)

LHEM Flight Activity (Flightaware)

Listeners: 0 out of 355 total

Esztergom CTAF: 126.850

LHOY CTAF
Ocseny, Hungary

Feed Status: DOWN
Offline since: 2018-02-18 12:18:03 UTC

Ocseny CTAF: 122.825

LHPR Info/AFIS (Archives)
Gyor, Hungary

Feed Status: UP

Click on your favorite media player to listen:
Listen with WinAmp to LHPR Info/AFIS  Listen with iTunes to LHPR Info/AFIS  Click here to listen if using Real Player  Click here to listen if using Windows Media Player

Or simply listen in your browser:

Listen right in your browser(in browser, requires Flash)

LHPR 241345Z 30012KT 9999 SCT046 BKN056 20/09 Q1018 RMK BLU

LHPR Flight Activity (Flightaware)

Listeners: 2 out of 355 total

Gyor AFIS: 129.900

LJLJ Radar (Archives)
Ljubljana, Slovenia

Feed Status: UP

Click on your favorite media player to listen:
Listen with WinAmp to LJLJ Radar  Listen with iTunes to LJLJ Radar  Click here to listen if using Real Player  Click here to listen if using Windows Media Player

Or simply listen in your browser:

Listen right in your browser(in browser, requires Flash)

LJLJ 241400Z 06007KT 9999 FEW040TCU SCT055 20/11 Q1017 NOSIG

LJLJ Flight Activity (Flightaware)

Listeners: 0 out of 355 total

Ljubljana Approach: 135.275

LJLJ Tower (Archives)
Ljubljana, Slovenia

Feed Status: UP

Click on your favorite media player to listen:
Listen with WinAmp to LJLJ Tower  Listen with iTunes to LJLJ Tower  Click here to listen if using Real Player  Click here to listen if using Windows Media Player

Or simply listen in your browser:

Listen right in your browser(in browser, requires Flash)

LJLJ 241400Z 06007KT 9999 FEW040TCU SCT055 20/11 Q1017 NOSIG

LJLJ Flight Activity (Flightaware)

Listeners: 1 out of 355 total

Ljubljana Tower: 118.000

LJMB Info/FSS/FIC (Archives)
Maribor, Slovenia

Feed Status: UP

Click on your favorite media player to listen:
Listen with WinAmp to LJMB Info/FSS/FIC  Listen with iTunes to LJMB Info/FSS/FIC  Click here to listen if using Real Player  Click here to listen if using Windows Media Player

Or simply listen in your browser:

Listen right in your browser(in browser, requires Flash)

LJMB 241400Z VRB03KT 9999 FEW050 BKN070 21/10 Q1018

LJMB Flight Activity (Flightaware)

Listeners: 0 out of 355 total

Ljubljana Information FSS/FIC (Maribor Area): 118.475

LJMB Tower/Approach (Archives)
Maribor, Slovenia

Feed Status: UP

Click on your favorite media player to listen:
Listen with WinAmp to LJMB Tower/Approach  Listen with iTunes to LJMB Tower/Approach  Click here to listen if using Real Player  Click here to listen if using Windows Media Player

Or simply listen in your browser:

Listen right in your browser(in browser, requires Flash)

LJMB 241400Z VRB03KT 9999 FEW050 BKN070 21/10 Q1018

LJMB Flight Activity (Flightaware)

Listeners: 1 out of 355 total

Maribor Tower/Approach: 119.200

LJPZ Tower (Archives)
Secovlje, Slovenia

Feed Status: UP

Click on your favorite media player to listen:
Listen with WinAmp to LJPZ Tower  Listen with iTunes to LJPZ Tower  Click here to listen if using Real Player  Click here to listen if using Windows Media Player

Or simply listen in your browser:

Listen right in your browser(in browser, requires Flash)

LJPZ 241400Z 25006KT 9999 FEW050TCU BKN250 24/10 Q1017

LJPZ Flight Activity (Flightaware)

Listeners: 0 out of 355 total

Portoroz Tower: 124.875

LKPM Tower (Archives)
Pribram, Czech Republic

Feed Status: UP

Click on your favorite media player to listen:
Listen with WinAmp to LKPM Tower  Listen with iTunes to LKPM Tower  Click here to listen if using Real Player  Click here to listen if using Windows Media Player

Or simply listen in your browser:

Listen right in your browser(in browser, requires Flash)

METAR NOT AVAILABLE

LKPM Flight Activity (Flightaware)

Listeners: 0 out of 355 total

Pribram Tower: 118.750

LKAA FIR (High) (Archives)
Prague, Czech Republic

Feed Status: UP

Click on your favorite media player to listen:
Listen with WinAmp to LKAA FIR (High)  Listen with iTunes to LKAA FIR (High)  Click here to listen if using Real Player  Click here to listen if using Windows Media Player

Or simply listen in your browser:

Listen right in your browser(in browser, requires Flash)

LKAA Flight Activity (Flightaware)

Listeners: 0 out of 355 total

LKAA FIR Sector West High / Praha Radar : 132.065

LKAA FIR (Low) (Archives)
Prague, Czech Republic

Feed Status: UP

Click on your favorite media player to listen:
Listen with WinAmp to LKAA FIR (Low)  Listen with iTunes to LKAA FIR (Low)  Click here to listen if using Real Player  Click here to listen if using Windows Media Player

Or simply listen in your browser:

Listen right in your browser(in browser, requires Flash)

LKAA Flight Activity (Flightaware)

Listeners: 1 out of 355 total

LKAA FIR Sector West Low / Praha Radar: 120.275

LKPR Approach (Archives)
Prague, Czech Republic

Feed Status: UP

Click on your favorite media player to listen:
Listen with WinAmp to LKPR Approach  Listen with iTunes to LKPR Approach  Click here to listen if using Real Player  Click here to listen if using Windows Media Player

Or simply listen in your browser:

Listen right in your browser(in browser, requires Flash)

LKPR 241400Z 32011KT 290V360 9999 SCT045 16/06 Q1019 NOSIG

LKPR Flight Activity (Flightaware)

Listeners: 0 out of 355 total

Prague Approach/Radar: 127.580

LKPR Clearance Del (Archives)
Prague, Czech Republic

Feed Status: UP

Click on your favorite media player to listen:
Listen with WinAmp to LKPR Clearance Del  Listen with iTunes to LKPR Clearance Del  Click here to listen if using Real Player  Click here to listen if using Windows Media Player

Or simply listen in your browser:

Listen right in your browser(in browser, requires Flash)

LKPR 241400Z 32011KT 290V360 9999 SCT045 16/06 Q1019 NOSIG

LKPR Flight Activity (Flightaware)

Listeners: 0 out of 355 total


LKPR Director/Ruzyne Radar (Archives)
Prague, Czech Republic

Feed Status: UP

Click on your favorite media player to listen:
Listen with WinAmp to LKPR Director/Ruzyne Radar  Listen with iTunes to LKPR Director/Ruzyne Radar  Click here to listen if using Real Player  Click here to listen if using Windows Media Player

Or simply listen in your browser:

Listen right in your browser(in browser, requires Flash)

LKPR 241400Z 32011KT 290V360 9999 SCT045 16/06 Q1019 NOSIG

LKPR Flight Activity (Flightaware)

Listeners: 0 out of 355 total

Prague Director/Ruzyne Radar: 119.010

NOTE: Only active during peak times, typically 2-6PM local time (CET)

LKPR Ground (Archives)
Prague, Czech Republic

Feed Status: UP

Click on your favorite media player to listen:
Listen with WinAmp to LKPR Ground  Listen with iTunes to LKPR Ground  Click here to listen if using Real Player  Click here to listen if using Windows Media Player

Or simply listen in your browser:

Listen right in your browser(in browser, requires Flash)

LKPR 241400Z 32011KT 290V360 9999 SCT045 16/06 Q1019 NOSIG

LKPR Flight Activity (Flightaware)

Listeners: 0 out of 355 total

Prague/Ruzyne Clearance Delivery: 120.060
Prague/Ruzyne Ground: 121.910

LKPR Tower (Archives)
Prague, Czech Republic

Feed Status: UP

Click on your favorite media player to listen:
Listen with WinAmp to LKPR Tower  Listen with iTunes to LKPR Tower  Click here to listen if using Real Player  Click here to listen if using Windows Media Player

Or simply listen in your browser:

Listen right in your browser(in browser, requires Flash)

LKPR 241400Z 32011KT 290V360 9999 SCT045 16/06 Q1019 NOSIG

LKPR Flight Activity (Flightaware)

Listeners: 1 out of 355 total

Prague/Ruzyne Tower: 118.110

LKTB Gnd/Twr/Radar (Archives)
Brno, Czech Republic

Feed Status: UP

Click on your favorite media player to listen:
Listen with WinAmp to LKTB Gnd/Twr/Radar  Listen with iTunes to LKTB Gnd/Twr/Radar  Click here to listen if using Real Player  Click here to listen if using Windows Media Player

Or simply listen in your browser:

Listen right in your browser(in browser, requires Flash)

LKTB 241400Z 33008KT 9999 FEW049 17/06 Q1018 NOSIG

LKTB Flight Activity (Flightaware)

Listeners: 1 out of 355 total

Brno Ground: 125.425
Brno Handling: 131.800
Brno Radar (Approach): 127.350
Brno Tower: 119.600

Santa Maria Control (Oceanic)
Santa Maria Island (Azores), Portugal

Feed Status: DOWN
Offline since: 2018-06-16 12:44:03 UTC
LPAZ 241400Z 27006KT 240V310 9999 FEW022 SCT042 23/15 Q1016

Emergency/Guard: 121.500
LPHR (Horta) Approach: 120.600
LPLA (Terceira) Approach: 135.000
LPLA (Terceira) Tower: 122.100
LPPD (Ponta Delgada) Approach: 119.400
Ponta Delgada Ground: 131.600
Santa Maria Approach: 119.100
Santa Maria Control: 132.150

LPCS Ground (Archives)
Cascais, Portugal

Feed Status: UP

Click on your favorite media player to listen:
Listen with WinAmp to LPCS Ground  Listen with iTunes to LPCS Ground  Click here to listen if using Real Player  Click here to listen if using Windows Media Player

Or simply listen in your browser:

Listen right in your browser(in browser, requires Flash)

LPCS 241400Z 26009KT 220V290 9999 FEW022 23/16 Q1015

LPCS Flight Activity (Flightaware)

Listeners: 0 out of 355 total

Cascais Ground: 121.850

LPCS Tower (Archives)
Cascais, Portugal

Feed Status: UP

Click on your favorite media player to listen:
Listen with WinAmp to LPCS Tower  Listen with iTunes to LPCS Tower  Click here to listen if using Real Player  Click here to listen if using Windows Media Player

Or simply listen in your browser:

Listen right in your browser(in browser, requires Flash)

LPCS 241400Z 26009KT 220V290 9999 FEW022 23/16 Q1015

LPCS Flight Activity (Flightaware)

Listeners: 0 out of 355 total

Cascais Tower: 120.300

LPLA Gnd/Twr/App (Archives)
Lajes, Portugal

Feed Status: UP

Click on your favorite media player to listen:
Listen with WinAmp to LPLA Gnd/Twr/App  Listen with iTunes to LPLA Gnd/Twr/App  Click here to listen if using Real Player  Click here to listen if using Windows Media Player

Or simply listen in your browser:

Listen right in your browser(in browser, requires Flash)

LPLA 241400Z /////KT 9999 FEW025 24/18 Q1016

LPLA Flight Activity (Flightaware)

Listeners: 1 out of 355 total

Lajes Approach: 135.000
Lajes Ground: 121.900
Lajes Tower: 122.100

LPPT Approach (Archives)
Lisbon, Portugal

Feed Status: UP

Click on your favorite media player to listen:
Listen with WinAmp to LPPT Approach  Listen with iTunes to LPPT Approach  Click here to listen if using Real Player  Click here to listen if using Windows Media Player

Or simply listen in your browser:

Listen right in your browser(in browser, requires Flash)

LPPT 241400Z 28005KT 210V360 9999 FEW042 27/16 Q1015

LPPT Flight Activity (Flightaware)

Listeners: 1 out of 355 total

Lisbon Approach: 119.100

LRCL Twr/App #1 (Archives)
Cluj-Napoca, Romania

Feed Status: UP

Click on your favorite media player to listen:
Listen with WinAmp to LRCL Twr/App #1  Listen with iTunes to LRCL Twr/App #1  Click here to listen if using Real Player  Click here to listen if using Windows Media Player

Or simply listen in your browser:

Listen right in your browser(in browser, requires Flash)

LRCL 241400Z 23004KT 190V290 9999 SCT065 16/09 Q1018

LRCL Flight Activity (Flightaware)

Listeners: 1 out of 355 total

Cluj Approach: 126.425
Cluj Tower: 134.400

LRCL Twr/App #2 (Archives)
Cluj-Napoca, Romania

Feed Status: UP

Click on your favorite media player to listen:
Listen with WinAmp to LRCL Twr/App #2  Listen with iTunes to LRCL Twr/App #2  Click here to listen if using Real Player  Click here to listen if using Windows Media Player

Or simply listen in your browser:

Listen right in your browser(in browser, requires Flash)

LRCL 241400Z 23004KT 190V290 9999 SCT065 16/09 Q1018

LRCL Flight Activity (Flightaware)

Listeners: 0 out of 355 total

Cluj Approach: 126.425
Cluj Tower: 134.400

LROP Bucharest Ground (Archives)
Bucharest, Romania

Feed Status: UP

Click on your favorite media player to listen:
Listen with WinAmp to LROP Bucharest Ground  Listen with iTunes to LROP Bucharest Ground  Click here to listen if using Real Player  Click here to listen if using Windows Media Player

Or simply listen in your browser:

Listen right in your browser(in browser, requires Flash)

LROP 241400Z 14004KT 090V180 CAVOK 23/10 Q1016 NOSIG

LROP Flight Activity (Flightaware)

Listeners: 0 out of 355 total

Bucharest Ground: 121.700

LROP Bucharest Twr/App (Archives)
Bucharest, Romania

Feed Status: UP

Click on your favorite media player to listen:
Listen with WinAmp to LROP Bucharest Twr/App  Listen with iTunes to LROP Bucharest Twr/App  Click here to listen if using Real Player  Click here to listen if using Windows Media Player

Or simply listen in your browser:

Listen right in your browser(in browser, requires Flash)

LROP 241400Z 14004KT 090V180 CAVOK 23/10 Q1016 NOSIG

LROP Flight Activity (Flightaware)

Listeners: 2 out of 355 total

Bucharest Approach: 118.250
Bucharest Approach (alternate): 120.600
Bucharest Radar (alternate): 126.725
Bucharest Radar (Arges Mid sector): 121.175
Bucharest Radar (Arges Top Sector): 123.265
Bucharest Radar (Koman Mid Sector): 124.975
Bucharest Radar (Koman Top Sector): 123.900
Bucharest Radar (Nerdi Mid Sector): 125.150
Bucharest Radar (Nerdi Top Sector): 122.025
Bucharest Tower: 120.900
Bucharest Tower (alternate): 121.850

Note: Bucharest Radar on right stereo channel and Bucharest Tower/Approach on left stereo channel.

LRSB Tower/CTAF (Archives)
Sibiu, Romania

Feed Status: UP

Click on your favorite media player to listen:
Listen with WinAmp to LRSB Tower/CTAF  Listen with iTunes to LRSB Tower/CTAF  Click here to listen if using Real Player  Click here to listen if using Windows Media Player

Or simply listen in your browser:

Listen right in your browser(in browser, requires Flash)

LRSB 241400Z 16006KT 140V200 9999 SCT045 SCT076 16/09 Q1018 NOSIG

LRSB Flight Activity (Flightaware)

Listeners: 0 out of 355 total

Sibiu Tower: 122.700

LRTR Tower (Archives)
Timisoara, Romania

Feed Status: UP

Click on your favorite media player to listen:
Listen with WinAmp to LRTR Tower  Listen with iTunes to LRTR Tower  Click here to listen if using Real Player  Click here to listen if using Windows Media Player

Or simply listen in your browser:

Listen right in your browser(in browser, requires Flash)

LRTR 241400Z 31008KT 9999 FEW050TCU 20/09 Q1017 NOSIG

LRTR Flight Activity (Flightaware)

Listeners: 0 out of 355 total

ARAD Approach: 127.250
Timisoara Tower: 120.100

LSGG App/Radar (Archives)
Geneva, Switzerland

Feed Status: UP

Click on your favorite media player to listen:
Listen with WinAmp to LSGG App/Radar  Listen with iTunes to LSGG App/Radar  Click here to listen if using Real Player  Click here to listen if using Windows Media Player

Or simply listen in your browser:

Listen right in your browser(in browser, requires Flash)

LSGG 241420Z 35004KT 300V010 9999 -SHRA VCTS FEW045 FEW050CB BKN090 BKN250 18/14 Q1019 TEMPO TSRA

LSGG Flight Activity (Flightaware)

Listeners: 0 out of 355 total

Geneva Arrival: 136.250
Swiss Radar (L2 - FL290-FL310): 126.050

LSGG Approach (Archives)
Geneva, Switzerland

Feed Status: UP

Click on your favorite media player to listen:
Listen with WinAmp to LSGG Approach  Listen with iTunes to LSGG Approach  Click here to listen if using Real Player  Click here to listen if using Windows Media Player

Or simply listen in your browser:

Listen right in your browser(in browser, requires Flash)

LSGG 241420Z 35004KT 300V010 9999 -SHRA VCTS FEW045 FEW050CB BKN090 BKN250 18/14 Q1019 TEMPO TSRA

LSGG Flight Activity (Flightaware)

Listeners: 0 out of 355 total

Geneva Arrival: 136.250

LSGG Radar (Archives)
Geneva, Switzerland

Feed Status: UP

Click on your favorite media player to listen:
Listen with WinAmp to LSGG Radar  Listen with iTunes to LSGG Radar  Click here to listen if using Real Player  Click here to listen if using Windows Media Player

Or simply listen in your browser:

Listen right in your browser(in browser, requires Flash)

LSGG 241420Z 35004KT 300V010 9999 -SHRA VCTS FEW045 FEW050CB BKN090 BKN250 18/14 Q1019 TEMPO TSRA

LSGG Flight Activity (Flightaware)

Listeners: 0 out of 355 total

Swiss Radar (L2 - FL290-FL310): 126.050

LSGG Tower (Archives)
Geneva, Switzerland

Feed Status: UP

Click on your favorite media player to listen:
Listen with WinAmp to LSGG Tower  Listen with iTunes to LSGG Tower  Click here to listen if using Real Player  Click here to listen if using Windows Media Player

Or simply listen in your browser:

Listen right in your browser(in browser, requires Flash)

LSGG 241420Z 35004KT 300V010 9999 -SHRA VCTS FEW045 FEW050CB BKN090 BKN250 18/14 Q1019 TEMPO TSRA

LSGG Flight Activity (Flightaware)

Listeners: 1 out of 355 total

Geneva Tower: 118.700

LSGS Gnd/Twr/App
Sion, Switzerland

Feed Status: DOWN
Offline since: 2018-06-08 04:24:03 UTC
LSGS 241420Z 26010KT 9999 SCT100 BKN140 23/09 Q1016

Alpine Jet Service Handling: 131.675
Sion Airport Handling: 131.475
Sion Approach (IFR ARR MIL OFF): 126.825
Sion Ground: 121.700
Sion Tower: 118.275

LiveATC LSGS - About us

LSMD Tower (Archives)
Dubendorf, Switzerland

Feed Status: UP

Click on your favorite media player to listen:
Listen with WinAmp to LSMD Tower  Listen with iTunes to LSMD Tower  Click here to listen if using Real Player  Click here to listen if using Windows Media Player

Or simply listen in your browser:

Listen right in your browser(in browser, requires Flash)

LSZH 241420Z 28005KT 240V310 9999 FEW050 BKN140 21/08 Q1020 NOSIG

LSZH Flight Activity (Flightaware)

Listeners: 1 out of 355 total

Dubendorf Tower: 118.975

LSPM AFIS (Archives)
Ambri, Switzerland

Feed Status: UP

Click on your favorite media player to listen:
Listen with WinAmp to LSPM AFIS  Listen with iTunes to LSPM AFIS  Click here to listen if using Real Player  Click here to listen if using Windows Media Player

Or simply listen in your browser:

Listen right in your browser(in browser, requires Flash)

METAR NOT AVAILABLE

LSPM Flight Activity (Flightaware)

Listeners: 0 out of 355 total

Ambri AFIS: 118.525

LSZA Tower (Archives)
Agno, Switzerland

Feed Status: UP

Click on your favorite media player to listen:
Listen with WinAmp to LSZA Tower  Listen with iTunes to LSZA Tower  Click here to listen if using Real Player  Click here to listen if using Windows Media Player

Or simply listen in your browser:

Listen right in your browser(in browser, requires Flash)

LSZA 241420Z AUTO 19005KT 9999 NSC 25/12 Q1016

LSZA Flight Activity (Flightaware)

Listeners: 0 out of 355 total

Lugano Tower: 120.250

LSZB Tower/App/Dep (Archives)
Bern, Switzerland

Feed Status: UP

Click on your favorite media player to listen:
Listen with WinAmp to LSZB Tower/App/Dep  Listen with iTunes to LSZB Tower/App/Dep  Click here to listen if using Real Player  Click here to listen if using Windows Media Player

Or simply listen in your browser:

Listen right in your browser(in browser, requires Flash)

LSZB 241420Z 33005KT 270V050 9999 FEW050 BKN120 22/10 Q1019 NOSIG

LSZB Flight Activity (Flightaware)

Listeners: 1 out of 355 total

LSZB Arrival/Departure (left channel): 127.325
LSZB Tower (right channel): 121.025

LSZG Tower (Archives)
Grenchen, Switzerland

Feed Status: UP

Click on your favorite media player to listen:
Listen with WinAmp to LSZG Tower  Listen with iTunes to LSZG Tower  Click here to listen if using Real Player  Click here to listen if using Windows Media Player

Or simply listen in your browser:

Listen right in your browser(in browser, requires Flash)

LSZG 241420Z AUTO 05006KT 020V100 9999 NCD 22/08 Q1019

LSZG Flight Activity (Flightaware)

Listeners: 0 out of 355 total

Grenchen Tower: 120.100

LSZH Approach (East) (Archives)
Zurich, Switzerland

Feed Status: UP

Click on your favorite media player to listen:
Listen with WinAmp to LSZH Approach (East)  Listen with iTunes to LSZH Approach (East)  Click here to listen if using Real Player  Click here to listen if using Windows Media Player

Or simply listen in your browser:

Listen right in your browser(in browser, requires Flash)

LSZH 241420Z 28005KT 240V310 9999 FEW050 BKN140 21/08 Q1020 NOSIG

LSZH Flight Activity (Flightaware)

Listeners: 0 out of 355 total

Zurich Approach (East): 135.225

LSZH Approach (West) (Archives)
Zurich, Switzerland

Feed Status: UP

Click on your favorite media player to listen:
Listen with WinAmp to LSZH Approach (West)  Listen with iTunes to LSZH Approach (West)  Click here to listen if using Real Player  Click here to listen if using Windows Media Player

Or simply listen in your browser:

Listen right in your browser(in browser, requires Flash)

LSZH 241420Z 28005KT 240V310 9999 FEW050 BKN140 21/08 Q1020 NOSIG

LSZH Flight Activity (Flightaware)

Listeners: 1 out of 355 total

Zurich Approach (West): 118.000

LSZH Apron (South) (Archives)
Zurich, Switzerland

Feed Status: UP

Click on your favorite media player to listen:
Listen with WinAmp to LSZH Apron (South)  Listen with iTunes to LSZH Apron (South)  Click here to listen if using Real Player  Click here to listen if using Windows Media Player

Or simply listen in your browser:

Listen right in your browser(in browser, requires Flash)

LSZH 241420Z 28005KT 240V310 9999 FEW050 BKN140 21/08 Q1020 NOSIG

LSZH Flight Activity (Flightaware)

Listeners: 0 out of 355 total

Zurich Apron (South): 121.750

LSZH Apron (West) (Archives)
Zurich, Switzerland

Feed Status: UP

Click on your favorite media player to listen:
Listen with WinAmp to LSZH Apron (West)  Listen with iTunes to LSZH Apron (West)  Click here to listen if using Real Player  Click here to listen if using Windows Media Player

Or simply listen in your browser:

Listen right in your browser(in browser, requires Flash)

LSZH 241420Z 28005KT 240V310 9999 FEW050 BKN140 21/08 Q1020 NOSIG

LSZH Flight Activity (Flightaware)

Listeners: 0 out of 355 total

Zurich Apron (West): 121.850

LSZH Clearance Delivery (Archives)
Zurich, Switzerland

Feed Status: UP

Click on your favorite media player to listen:
Listen with WinAmp to LSZH Clearance Delivery  Listen with iTunes to LSZH Clearance Delivery  Click here to listen if using Real Player  Click here to listen if using Windows Media Player

Or simply listen in your browser:

Listen right in your browser(in browser, requires Flash)

LSZH 241420Z 28005KT 240V310 9999 FEW050 BKN140 21/08 Q1020 NOSIG

LSZH Flight Activity (Flightaware)

Listeners: 0 out of 355 total

Zurich Clearance Delivery: 121.925

LSZH Ground (Archives)
Zurich, Switzerland

Feed Status: UP

Click on your favorite media player to listen:
Listen with WinAmp to LSZH Ground  Listen with iTunes to LSZH Ground  Click here to listen if using Real Player  Click here to listen if using Windows Media Player

Or simply listen in your browser:

Listen right in your browser(in browser, requires Flash)

LSZH 241420Z 28005KT 240V310 9999 FEW050 BKN140 21/08 Q1020 NOSIG

LSZH Flight Activity (Flightaware)

Listeners: 0 out of 355 total

Zurich Ground: 121.900

LSZH Radar (Archives)
Zurich, Switzerland

Feed Status: UP

Click on your favorite media player to listen:
Listen with WinAmp to LSZH Radar  Listen with iTunes to LSZH Radar  Click here to listen if using Real Player  Click here to listen if using Windows Media Player

Or simply listen in your browser:

Listen right in your browser(in browser, requires Flash)

LSZH 241420Z 28005KT 240V310 9999 FEW050 BKN140 21/08 Q1020 NOSIG

LSZH Flight Activity (Flightaware)

Listeners: 1 out of 355 total

Zurich Radar ACC (-FL240 East): 133.900
Zurich Radar ACC (-FL240 North): 136.150
Zurich Radar ACC (-FL240 South): 128.050
Zurich Radar ACC (-FL240 West): 135.675
Zurich Radar ACC (FL250-280): 133.050
Zurich Radar ACC (FL290-320): 132.815
Zurich Radar ACC (FL330-350): 134.600
Zurich Radar ACC (FL360+): 133.400

LSZH Radar 132.815 (Archives)
Zurich, Switzerland

Feed Status: UP

Click on your favorite media player to listen:
Listen with WinAmp to LSZH Radar 132.815  Listen with iTunes to LSZH Radar 132.815  Click here to listen if using Real Player  Click here to listen if using Windows Media Player

Or simply listen in your browser:

Listen right in your browser(in browser, requires Flash)

LSZH 241420Z 28005KT 240V310 9999 FEW050 BKN140 21/08 Q1020 NOSIG

LSZH Flight Activity (Flightaware)

Listeners: 0 out of 355 total

Zurich Radar: 132.815

LSZH Radar 133.050 (Archives)
Zurich, Switzerland

Feed Status: UP

Click on your favorite media player to listen:
Listen with WinAmp to LSZH Radar 133.050  Listen with iTunes to LSZH Radar 133.050  Click here to listen if using Real Player  Click here to listen if using Windows Media Player

Or simply listen in your browser:

Listen right in your browser(in browser, requires Flash)

LSZH 241420Z 28005KT 240V310 9999 FEW050 BKN140 21/08 Q1020 NOSIG

LSZH Flight Activity (Flightaware)

Listeners: 0 out of 355 total

Zurich Radar: 133.050

LSZH Radar 133.400 (Archives)
Zurich, Switzerland

Feed Status: UP

Click on your favorite media player to listen:
Listen with WinAmp to LSZH Radar 133.400  Listen with iTunes to LSZH Radar 133.400  Click here to listen if using Real Player  Click here to listen if using Windows Media Player

Or simply listen in your browser:

Listen right in your browser(in browser, requires Flash)

LSZH 241420Z 28005KT 240V310 9999 FEW050 BKN140 21/08 Q1020 NOSIG

LSZH Flight Activity (Flightaware)

Listeners: 0 out of 355 total

Zurich Radar: 133.400

LSZH Radar 133.690 (Archives)
Zurich, Switzerland

Feed Status: UP

Click on your favorite media player to listen:
Listen with WinAmp to LSZH Radar 133.690  Listen with iTunes to LSZH Radar 133.690  Click here to listen if using Real Player  Click here to listen if using Windows Media Player

Or simply listen in your browser:

Listen right in your browser(in browser, requires Flash)

LSZH 241420Z 28005KT 240V310 9999 FEW050 BKN140 21/08 Q1020 NOSIG

LSZH Flight Activity (Flightaware)

Listeners: 0 out of 355 total

Zurich Radar: 133.690

LSZH Radar 133.900 (Archives)
Zurich, Switzerland

Feed Status: UP

Click on your favorite media player to listen:
Listen with WinAmp to LSZH Radar 133.900  Listen with iTunes to LSZH Radar 133.900  Click here to listen if using Real Player  Click here to listen if using Windows Media Player

Or simply listen in your browser:

Listen right in your browser(in browser, requires Flash)

LSZH 241420Z 28005KT 240V310 9999 FEW050 BKN140 21/08 Q1020 NOSIG

LSZH Flight Activity (Flightaware)

Listeners: 0 out of 355 total

Zurich Radar (Below FL240 East): 133.900

LSZH Radar 134.600 (Archives)
Zurich, Switzerland

Feed Status: UP

Click on your favorite media player to listen:
Listen with WinAmp to LSZH Radar 134.600  Listen with iTunes to LSZH Radar 134.600  Click here to listen if using Real Player  Click here to listen if using Windows Media Player

Or simply listen in your browser:

Listen right in your browser(in browser, requires Flash)

LSZH 241420Z 28005KT 240V310 9999 FEW050 BKN140 21/08 Q1020 NOSIG

LSZH Flight Activity (Flightaware)

Listeners: 0 out of 355 total

Zurich Radar (FL330-350): 134.600

LSZH Radar 135.675 (Archives)
Zurich, Switzerland

Feed Status: UP

Click on your favorite media player to listen:
Listen with WinAmp to LSZH Radar 135.675  Listen with iTunes to LSZH Radar 135.675  Click here to listen if using Real Player  Click here to listen if using Windows Media Player

Or simply listen in your browser:

Listen right in your browser(in browser, requires Flash)

LSZH 241420Z 28005KT 240V310 9999 FEW050 BKN140 21/08 Q1020 NOSIG

LSZH Flight Activity (Flightaware)

Listeners: 0 out of 355 total


LSZH Radar 136.150 (Archives)
Zurich, Switzerland

Feed Status: UP

Click on your favorite media player to listen:
Listen with WinAmp to LSZH Radar 136.150  Listen with iTunes to LSZH Radar 136.150  Click here to listen if using Real Player  Click here to listen if using Windows Media Player

Or simply listen in your browser:

Listen right in your browser(in browser, requires Flash)

LSZH 241420Z 28005KT 240V310 9999 FEW050 BKN140 21/08 Q1020 NOSIG

LSZH Flight Activity (Flightaware)

Listeners: 0 out of 355 total

Zurich Radar (Below FL240 North): 136.150

LSZH Tower (Archives)
Zurich, Switzerland

Feed Status: UP

Click on your favorite media player to listen:
Listen with WinAmp to LSZH Tower  Listen with iTunes to LSZH Tower  Click here to listen if using Real Player  Click here to listen if using Windows Media Player

Or simply listen in your browser:

Listen right in your browser(in browser, requires Flash)

LSZH 241420Z 28005KT 240V310 9999 FEW050 BKN140 21/08 Q1020 NOSIG

LSZH Flight Activity (Flightaware)

Listeners: 5 out of 355 total

Zurich Tower: 118.100

LSZH Tower #3 (Archives)
Zurich, Switzerland

Feed Status: UP

Click on your favorite media player to listen:
Listen with WinAmp to LSZH Tower #3  Listen with iTunes to LSZH Tower #3  Click here to listen if using Real Player  Click here to listen if using Windows Media Player

Or simply listen in your browser:

Listen right in your browser(in browser, requires Flash)

LSZH 241420Z 28005KT 240V310 9999 FEW050 BKN140 21/08 Q1020 NOSIG

LSZH Flight Activity (Flightaware)

Listeners: 0 out of 355 total

Zurich Tower: 118.100

LSZH Tower (14/32) (Archives)
Zurich, Switzerland

Feed Status: UP

Click on your favorite media player to listen:
Listen with WinAmp to LSZH Tower (14/32)  Listen with iTunes to LSZH Tower (14/32)  Click here to listen if using Real Player  Click here to listen if using Windows Media Player

Or simply listen in your browser:

Listen right in your browser(in browser, requires Flash)

LSZH 241420Z 28005KT 240V310 9999 FEW050 BKN140 21/08 Q1020 NOSIG

LSZH Flight Activity (Flightaware)

Listeners: 0 out of 355 total

Zurich Tower (Rwy 14 App/32 Takeoff): 120.225

LSZH Twr/Gnd (backup) (Archives)
Zurich, Switzerland

Feed Status: UP

Click on your favorite media player to listen:
Listen with WinAmp to LSZH Twr/Gnd (backup)  Listen with iTunes to LSZH Twr/Gnd (backup)  Click here to listen if using Real Player  Click here to listen if using Windows Media Player

Or simply listen in your browser:

Listen right in your browser(in browser, requires Flash)

LSZH 241420Z 28005KT 240V310 9999 FEW050 BKN140 21/08 Q1020 NOSIG

LSZH Flight Activity (Flightaware)

Listeners: 0 out of 355 total

Zurich Twr/Gnd (backup): 119.700

LSZL Tower (Archives)
Locarno, Switzerland

Feed Status: UP

Click on your favorite media player to listen:
Listen with WinAmp to LSZL Tower  Listen with iTunes to LSZL Tower  Click here to listen if using Real Player  Click here to listen if using Windows Media Player

Or simply listen in your browser:

Listen right in your browser(in browser, requires Flash)

LSZL Flight Activity (Flightaware)

Listeners: 0 out of 355 total


LSZR Tower (Archives)
Altenrhein, Switzerland

Feed Status: UP

Click on your favorite media player to listen:
Listen with WinAmp to LSZR Tower  Listen with iTunes to LSZR Tower  Click here to listen if using Real Player  Click here to listen if using Windows Media Player

Or simply listen in your browser:

Listen right in your browser(in browser, requires Flash)

LSZR 241420Z 26007KT 220V290 CAVOK 21/08 Q1019 NOSIG RMK G

LSZR Flight Activity (Flightaware)

Listeners: 1 out of 355 total

Altenrhein Tower: 135.425

LSZW CTAF (Archives)
Thun, Switzerland

Feed Status: UP

Click on your favorite media player to listen:
Listen with WinAmp to LSZW CTAF  Listen with iTunes to LSZW CTAF  Click here to listen if using Real Player  Click here to listen if using Windows Media Player

Or simply listen in your browser:

Listen right in your browser(in browser, requires Flash)

LSZW Flight Activity (Flightaware)

Listeners: 0 out of 355 total

Thun CTAF/Info: 123.250

LTBA Gnd/Twr/App
Istanbul, Turkey

Feed Status: DOWN
Offline since: 2018-05-18 21:05:03 UTC
LTBA 241420Z 04014KT 360V110 9999 BKN036 24/12 Q1015 NOSIG

Istanbul Approach (Final): 120.500
Istanbul Approach (Low): 120.425
Istanbul Approach (Middle): 120.700
Istanbul Departure: 119.350
Istanbul Ground (North): 121.600
Istanbul Ground (South): 121.800
Istanbul Tower (Arrival): 118.100
Istanbul Tower (Departure): 118.375

LTBA Twr/App
Istanbul, Turkey

Feed Status: DOWN
Offline since: 2018-05-18 21:01:09 UTC
LTBA 241420Z 04014KT 360V110 9999 BKN036 24/12 Q1015 NOSIG

Ankara Control (IST Upper East): 132.600
Ankara Control (IST Upper West): 119.300
Istanbul Approach: 120.500
Istanbul Approach: 121.100
Istanbul Approach: 120.125
Istanbul Approach (Low): 120.425
Istanbul Approach (Middle): 120.700
Istanbul Approach (Upper West): 119.350
Istanbul Approach West (SAW): 119.425
Istanbul Departure (Init Climb): 119.475
Istanbul Tower (Arrival): 118.100
Istanbul Tower (Departure): 118.375

LTFJ Del/Gnd/Twr #1 (Archives)
Istanbul, Turkey

Feed Status: UP

Click on your favorite media player to listen:
Listen with WinAmp to LTFJ Del/Gnd/Twr #1  Listen with iTunes to LTFJ Del/Gnd/Twr #1  Click here to listen if using Real Player  Click here to listen if using Windows Media Player

Or simply listen in your browser:

Listen right in your browser(in browser, requires Flash)

LTFJ 241420Z 05020KT 9999 FEW040 BKN100 23/13 Q1014 NOSIG

LTFJ Flight Activity (Flightaware)

Listeners: 0 out of 355 total

Gokcen Clearance Delivery: 122.625
Gokcen Ground: 121.750
Gokcen Tower: 118.800

LTFJ Del/Gnd/Twr #2 (Archives)
Istanbul, Turkey

Feed Status: UP

Click on your favorite media player to listen:
Listen with WinAmp to LTFJ Del/Gnd/Twr #2  Listen with iTunes to LTFJ Del/Gnd/Twr #2  Click here to listen if using Real Player  Click here to listen if using Windows Media Player

Or simply listen in your browser:

Listen right in your browser(in browser, requires Flash)

LTFJ 241420Z 05020KT 9999 FEW040 BKN100 23/13 Q1014 NOSIG

LTFJ Flight Activity (Flightaware)

Listeners: 0 out of 355 total

Gokcen Clearance Delivery: 122.625
Gokcen Ground: 121.750
Gokcen Tower: 118.800

LUKK ACC #1
Chisinau, Moldova

Feed Status: DOWN
Offline since: 2018-06-23 16:52:04 UTC
LUKK 241400Z 29005KT 210V010 9999 SCT049 22/07 Q1016 R08/CLRD// NOSIG

Chisinau ACC: 130.975

Runway 08 Blog

LUKK ACC #2
Chisinau, Moldova

Feed Status: DOWN
Offline since: 2018-06-23 16:53:04 UTC
LUKK 241400Z 29005KT 210V010 9999 SCT049 22/07 Q1016 R08/CLRD// NOSIG

Chisinau ACC: 128.975

Runway 08 Blog

LUKK Air to Air
Chisinau, Moldova

Feed Status: DOWN
Offline since: 2018-06-23 16:53:04 UTC
LUKK 241400Z 29005KT 210V010 9999 SCT049 22/07 Q1016 R08/CLRD// NOSIG

Chisinau Air to Air: 123.450

Runway 08 Blog

LUKK Alternate
Chisinau, Moldova

Feed Status: DOWN
Offline since: 2018-06-23 16:53:04 UTC
LUKK 241400Z 29005KT 210V010 9999 SCT049 22/07 Q1016 R08/CLRD// NOSIG

Chisinau Alternate: 129.725

LUKK Approach #1
Chisinau, Moldova

Feed Status: DOWN
Offline since: 2017-07-29 14:02:03 UTC
LUKK 241400Z 29005KT 210V010 9999 SCT049 22/07 Q1016 R08/CLRD// NOSIG

Chisinau Approach: 133.300

LUKK Approach #2
Chisinau, Moldova

Feed Status: DOWN
Offline since: 2018-06-23 16:52:04 UTC
LUKK 241400Z 29005KT 210V010 9999 SCT049 22/07 Q1016 R08/CLRD// NOSIG

Chisinau Approach: 133.300

Runway 08 Blog

LUKK Control (Archives)
Chisinau, Moldova

Feed Status: UP

Click on your favorite media player to listen:
Listen with WinAmp to LUKK Control  Listen with iTunes to LUKK Control  Click here to listen if using Real Player  Click here to listen if using Windows Media Player

Or simply listen in your browser:

Listen right in your browser(in browser, requires Flash)

LUKK 241400Z 29005KT 210V010 9999 SCT049 22/07 Q1016 R08/CLRD// NOSIG

LUKK Flight Activity (Flightaware)

Listeners: 0 out of 355 total

Chisinau ACC: 128.975
Chisinau ACC: 130.975

LUKK Emergency/Guard
Chisinau, Moldova

Feed Status: DOWN
Offline since: 2018-06-23 16:53:04 UTC
LUKK 241400Z 29005KT 210V010 9999 SCT049 22/07 Q1016 R08/CLRD// NOSIG

Emergency/Guard: 121.500

Runway 08 Blog

LUKK Ground #1 (Archives)
Chisinau, Moldova

Feed Status: UP

Click on your favorite media player to listen:
Listen with WinAmp to LUKK Ground #1  Listen with iTunes to LUKK Ground #1  Click here to listen if using Real Player  Click here to listen if using Windows Media Player

Or simply listen in your browser:

Listen right in your browser(in browser, requires Flash)

LUKK 241400Z 29005KT 210V010 9999 SCT049 22/07 Q1016 R08/CLRD// NOSIG

LUKK Flight Activity (Flightaware)

Listeners: 0 out of 355 total

Chisinau Ground: 121.800

LUKK Ground #2
Chisinau, Moldova

Feed Status: DOWN
Offline since: 2018-06-23 16:53:04 UTC
LUKK 241400Z 29005KT 210V010 9999 SCT049 22/07 Q1016 R08/CLRD// NOSIG

Chisinau Ground: 121.800

Runway 08 Blog

LUKK Handling
Chisinau, Moldova

Feed Status: DOWN
Offline since: 2018-06-23 16:52:04 UTC
LUKK 241400Z 29005KT 210V010 9999 SCT049 22/07 Q1016 R08/CLRD// NOSIG

Chisinau Handling: 131.700

Runway 08 Blog

LUKK Tower #1 (Archives)
Chisinau, Moldova

Feed Status: UP

Click on your favorite media player to listen:
Listen with WinAmp to LUKK Tower #1  Listen with iTunes to LUKK Tower #1  Click here to listen if using Real Player  Click here to listen if using Windows Media Player

Or simply listen in your browser:

Listen right in your browser(in browser, requires Flash)

LUKK 241400Z 29005KT 210V010 9999 SCT049 22/07 Q1016 R08/CLRD// NOSIG

LUKK Flight Activity (Flightaware)

Listeners: 0 out of 355 total

Chisinau Tower: 118.100

LUKK Tower #2
Chisinau, Moldova

Feed Status: DOWN
Offline since: 2018-06-23 16:53:04 UTC
LUKK 241400Z 29005KT 210V010 9999 SCT049 22/07 Q1016 R08/CLRD// NOSIG

Chisinau Tower: 118.100

Runway 08 Blog

LWSK ACC (Lower) (Archives)
Petrovec, Macedonia, Republic of

Feed Status: UP

Click on your favorite media player to listen:
Listen with WinAmp to LWSK ACC (Lower)  Listen with iTunes to LWSK ACC (Lower)  Click here to listen if using Real Player  Click here to listen if using Windows Media Player

Or simply listen in your browser:

Listen right in your browser(in browser, requires Flash)

LWSK 241430Z 21003KT 9999 FEW050 SCT090 22/07 Q1016 NOSIG

LWSK Flight Activity (Flightaware)

Listeners: 0 out of 355 total

Skopje Control (Lower): 119.375

LWSK ACC (Upper) (Archives)
Petrovec, Macedonia, Republic of

Feed Status: UP

Click on your favorite media player to listen:
Listen with WinAmp to LWSK ACC (Upper)  Listen with iTunes to LWSK ACC (Upper)  Click here to listen if using Real Player  Click here to listen if using Windows Media Player

Or simply listen in your browser:

Listen right in your browser(in browser, requires Flash)

LWSK 241430Z 21003KT 9999 FEW050 SCT090 22/07 Q1016 NOSIG

LWSK Flight Activity (Flightaware)

Listeners: 0 out of 355 total

Skopje Control (Upper): 120.015

LWSK Approach (Archives)
Petrovec, Macedonia, Republic of

Feed Status: UP

Click on your favorite media player to listen:
Listen with WinAmp to LWSK Approach  Listen with iTunes to LWSK Approach  Click here to listen if using Real Player  Click here to listen if using Windows Media Player

Or simply listen in your browser:

Listen right in your browser(in browser, requires Flash)

LWSK 241430Z 21003KT 9999 FEW050 SCT090 22/07 Q1016 NOSIG

LWSK Flight Activity (Flightaware)

Listeners: 0 out of 355 total

Skopje Approach/Departure: 120.300

LWSK ATIS (Archives)
Petrovec, Macedonia, Republic of

Feed Status: UP

Click on your favorite media player to listen:
Listen with WinAmp to LWSK ATIS  Listen with iTunes to LWSK ATIS  Click here to listen if using Real Player  Click here to listen if using Windows Media Player

Or simply listen in your browser:

Listen right in your browser(in browser, requires Flash)

LWSK 241430Z 21003KT 9999 FEW050 SCT090 22/07 Q1016 NOSIG

LWSK Flight Activity (Flightaware)

Listeners: 0 out of 355 total

Skopje ATIS: 130.125

LWSK Tower (Archives)
Petrovec, Macedonia, Republic of

Feed Status: UP

Click on your favorite media player to listen:
Listen with WinAmp to LWSK Tower  Listen with iTunes to LWSK Tower  Click here to listen if using Real Player  Click here to listen if using Windows Media Player

Or simply listen in your browser:

Listen right in your browser(in browser, requires Flash)

LWSK 241430Z 21003KT 9999 FEW050 SCT090 22/07 Q1016 NOSIG

LWSK Flight Activity (Flightaware)

Listeners: 0 out of 355 total

Skopje Tower: 118.500

LWSK Twr/App (Archives)
Petrovec, Macedonia, Republic of

Feed Status: UP

Click on your favorite media player to listen:
Listen with WinAmp to LWSK Twr/App  Listen with iTunes to LWSK Twr/App  Click here to listen if using Real Player  Click here to listen if using Windows Media Player

Or simply listen in your browser:

Listen right in your browser(in browser, requires Flash)

LWSK 241430Z 21003KT 9999 FEW050 SCT090 22/07 Q1016 NOSIG

LWSK Flight Activity (Flightaware)

Listeners: 0 out of 355 total

Skopje Approach/Departure: 120.300
Skopje Approach/Departure: 125.825
Skopje Tower: 118.500

LZIB Del/Twr/App (Archives)
Bratislava, Slovakia

Feed Status: UP

Click on your favorite media player to listen:
Listen with WinAmp to LZIB Del/Twr/App  Listen with iTunes to LZIB Del/Twr/App  Click here to listen if using Real Player  Click here to listen if using Windows Media Player

Or simply listen in your browser:

Listen right in your browser(in browser, requires Flash)

LZIB 241400Z 30004KT 240V360 9999 FEW040 BKN090 18/09 Q1018 NOSIG

LZIB Flight Activity (Flightaware)

Listeners: 0 out of 355 total

Stefanik Approach: 120.900
Stefanik Clearance Delivery: 118.975
Stefanik Tower: 118.300
Stefanik Tower (backup): 118.700

(c) LPS

LZKZ Gnd/Twr/App (Archives)
Kosice, Slovakia

Feed Status: UP

Click on your favorite media player to listen:
Listen with WinAmp to LZKZ Gnd/Twr/App  Listen with iTunes to LZKZ Gnd/Twr/App  Click here to listen if using Real Player  Click here to listen if using Windows Media Player

Or simply listen in your browser:

Listen right in your browser(in browser, requires Flash)

LZKZ 241400Z 04003KT 360V100 9999 -SHRA FEW024TCU SCT055 18/11 Q1016 NOSIG

LZKZ Flight Activity (Flightaware)

Listeners: 0 out of 355 total

Kosice Approach: 119.850
Kosice Ground: 121.700
Kosice Handling: 131.850
Kosice Tower: 120.400

LZPE CTAF/UNICOM (Archives)
Prievidza, Slovakia

Feed Status: UP

Click on your favorite media player to listen:
Listen with WinAmp to LZPE CTAF/UNICOM  Listen with iTunes to LZPE CTAF/UNICOM  Click here to listen if using Real Player  Click here to listen if using Windows Media Player

Or simply listen in your browser:

Listen right in your browser(in browser, requires Flash)

LZPE Flight Activity (Flightaware)

Listeners: 0 out of 355 total

Prievidza CTAF/UNICOM: 123.055

LZPT CTAF (Archives)
Partizanske, Slovakia

Feed Status: UP

Click on your favorite media player to listen:
Listen with WinAmp to LZPT CTAF  Listen with iTunes to LZPT CTAF  Click here to listen if using Real Player  Click here to listen if using Windows Media Player

Or simply listen in your browser:

Listen right in your browser(in browser, requires Flash)

LZPT Flight Activity (Flightaware)

Listeners: 0 out of 355 total

Male Bielice CTAF: 123.500

LZTN CTAF
Trencin, Slovakia

Feed Status: DOWN
Offline since: 2018-06-21 08:07:02 UTC

Trencin Traffic: 123.600

URKK Gnd/Twr/App
Krasnodar, Russia

Feed Status: DOWN
Offline since: 2018-06-22 20:54:03 UTC
URKK 241400Z 29004MPS 260V330 9999 FEW039CB 28/18 Q1013 R23L/290060 TEMPO 0500 +TSRAGR BKN003 BKN020CB RMK QFE756

Krasnodar Approach: 129.600
Krasnodar Ground: 119.000
Krasnodar Radar: 121.300
Krasnodar Tower: 118.200

URMT Twr/App/Control (Archives)
Stavropol, Russia

Feed Status: UP

Click on your favorite media player to listen:
Listen with WinAmp to URMT Twr/App/Control  Listen with iTunes to URMT Twr/App/Control  Click here to listen if using Real Player  Click here to listen if using Windows Media Player

Or simply listen in your browser:

Listen right in your browser(in browser, requires Flash)

URMT 241400Z 01002MPS 9999 BKN033CB 27/13 Q1014 R25/010070 TEMPO 0300 +TSRAGR BKN002 BKN020CB RMK QFE722

URMT Flight Activity (Flightaware)

Listeners: 0 out of 355 total

Stavropol Approach: 120.300
Stavropol Control: 118.250
Stavropol Tower: 120.900

URSS Gnd/Twr/App (Archives)
Sochi, Russia

Feed Status: UP

Click on your favorite media player to listen:
Listen with WinAmp to URSS Gnd/Twr/App  Listen with iTunes to URSS Gnd/Twr/App  Click here to listen if using Real Player  Click here to listen if using Windows Media Player

Or simply listen in your browser:

Listen right in your browser(in browser, requires Flash)

URSS 241400Z 29006MPS 9999 FEW040 27/20 Q1012 WS ALL RWY R02/090070 R06/090070 NOSIG RMK R06/28007G12MPS MT OBSC QFE758

URSS Flight Activity (Flightaware)

Listeners: 0 out of 355 total

Sochi Approach: 118.300
Sochi Approach: 119.700
Sochi District (Small Aircraft): 118.500
Sochi Start: 121.200
Sochi Taxi: 119.000
Sochi Tower: 124.600

USDD Gnd/Twr/App/Control (Archives)
Salekhard, Russia

Feed Status: UP

Click on your favorite media player to listen:
Listen with WinAmp to USDD Gnd/Twr/App/Control  Listen with iTunes to USDD Gnd/Twr/App/Control  Click here to listen if using Real Player  Click here to listen if using Windows Media Player

Or simply listen in your browser:

Listen right in your browser(in browser, requires Flash)

USDD 150530Z 05007MPS 9999 -SHRA BKN009CB 09/07 Q1002 R04/290060 NOSIG RMK QFE746/0994

USDD Flight Activity (Flightaware)

Listeners: 0 out of 355 total

Salekhard Control: 132.300
Salekhard Ground: 118.800
Salekhard Info: 125.200
Salekhard Krug: 120.800
Salekhard Tower: 118.600
Salekhard Transit: 131.700

UUEE Twr/App/Radar (Archives)
Moscow, Russia

Feed Status: UP

Click on your favorite media player to listen:
Listen with WinAmp to UUEE Twr/App/Radar  Listen with iTunes to UUEE Twr/App/Radar  Click here to listen if using Real Player  Click here to listen if using Windows Media Player

Or simply listen in your browser:

Listen right in your browser(in browser, requires Flash)

UUEE 241400Z 25004MPS CAVOK 24/15 Q1009 R24C/CLRD62 R24L/CLRD62 NOSIG

UUEE Flight Activity (Flightaware)

Listeners: 2 out of 355 total

AFL ACC: 131.675
Moscow Radar: 118.100
Moscow TMA App (East 3600+): 131.200
Moscow TMA App (West 3600-): 122.700
Moscow TMA Approach: 128.000
Moscow TMA Approach: 123.400
Moscow TMA Approach (West 3600m+): 127.200
Moscow Tower: 131.500
UUWW Ground: 120.450
UUWW Radar: 126.000
UUWW Tower: 118.300

NOTE: If archived recordings are used you please provide a link back to http://radioscanner.ru (and to LiveATC.net)

Moscow TMA (UUDD Region) (Archives)
Moscow, Russia

Feed Status: UP

Click on your favorite media player to listen:
Listen with WinAmp to Moscow TMA (UUDD Region)  Listen with iTunes to Moscow TMA (UUDD Region)  Click here to listen if using Real Player  Click here to listen if using Windows Media Player

Or simply listen in your browser:

Listen right in your browser(in browser, requires Flash)

UUWW 241400Z 26006MPS CAVOK 22/15 Q1010 R19/000070 R24/000070 TEMPO VRB15MPS 2100 -TSGR BKN020CB

UUWW Flight Activity (Flightaware)

Listeners: 0 out of 355 total

Moscow TMA Approach: 134.000
Moscow TMA Approach: 125.300
Moscow TMA Approach: 129.800

NOTE: If archived recordings are used you please provide a link back to http://radioscanner.ru (and to LiveATC.net)

UUWW Gnd/Twr/App/ACC (Archives)
Moscow, Russia

Feed Status: UP

Click on your favorite media player to listen:
Listen with WinAmp to UUWW Gnd/Twr/App/ACC  Listen with iTunes to UUWW Gnd/Twr/App/ACC  Click here to listen if using Real Player  Click here to listen if using Windows Media Player

Or simply listen in your browser:

Listen right in your browser(in browser, requires Flash)

UUWW 241400Z 26006MPS CAVOK 22/15 Q1010 R19/000070 R24/000070 TEMPO VRB15MPS 2100 -TSGR BKN020CB

UUWW Flight Activity (Flightaware)

Listeners: 0 out of 355 total

ACC AFL: 131.675
ACC SBI: 124.900
ACC TSO: 134.800
Emergency/Guard: 121.500
MSK TMA App 3 (right channel): 128.000
MSK TMA App 4 (right channel): 123.400
MSK TMA App 5 (left channel): 125.300
MSK TMA App 6 (left channel): 134.000
UUWW Approach (right channel): 122.300
UUWW Approach 2 (left channel): 127.300
UUWW Ground: 120.450
UUWW Radar (left channel): 126.000
UUWW Tower (right channel): 118.300

NOTE: If archived recordings are used you please provide a link back to http://radioscanner.ru (and to LiveATC.net)

UUWW Twr/App
Moscow, Russia

Feed Status: DOWN
Offline since: 2018-01-04 05:25:03 UTC
UUWW 241400Z 26006MPS CAVOK 22/15 Q1010 R19/000070 R24/000070 TEMPO VRB15MPS 2100 -TSGR BKN020CB

UUWW Radar (left channel): 126.000
UUWW Tower: 118.300